<- Previous Day | Today | Next Day ->

All Data for 11 June 2021

 

Time A - D Temp A - D Dew Point A - D Humidity A - D Pressure A - D Wind A - D Wind Dir Gust A - D Rain Rate A - D Rain Total
00:00 14.7 14.4 98 1020.5 7.6 S 9.8 0.0 0.0
00:01 14.7 14.4 98 1020.8 7.6 SSW 9.8 0.0 0.0
00:02 14.7 14.4 98 1020.5 7.6 S 9.8 0.0 0.0
00:03 14.7 14.4 98 1020.6 6.9 S 9.8 0.0 0.0
00:04 14.7 14.4 98 1020.5 7.6 SW 9.8 0.0 0.0
00:05 14.7 14.4 98 1020.7 8.3 W 9.8 0.0 0.0
00:06 14.6 14.3 98 1020.8 8.3 WSW 9.8 0.0 0.0
00:07 14.6 14.3 98 1020.9 7.6 SSW 9.2 0.0 0.0
00:08 14.6 14.3 98 1020.7 7.6 W 9.2 0.0 0.0
00:09 14.6 14.3 98 1020.7 6.9 WSW 9.2 0.0 0.0
00:10 14.6 14.3 98 1020.8 8.3 SE 9.2 0.0 0.0
00:11 14.6 14.3 98 1020.7 5.4 S 8.3 0.0 0.0
00:13 14.6 14.3 98 1020.7 5.4 W 8.3 0.0 0.1
00:14 14.6 14.3 98 1020.5 8.3 S 8.3 0.8 0.1
00:15 14.6 14.3 98 1020.5 7.6 SW 8.3 0.8 0.1
00:16 14.6 14.3 98 1020.6 6.9 W 8.3 0.8 0.1
00:17 14.6 14.3 98 1020.6 6.9 W 8.3 0.8 0.1
00:18 14.6 14.3 98 1020.4 8.3 S 8.3 0.8 0.1
00:19 14.6 14.3 98 1020.6 8.3 W 9.2 0.0 0.1
00:20 14.6 14.3 98 1020.6 8.3 W 9.2 0.0 0.1
00:21 14.6 14.3 98 1020.5 8.3 S 9.2 0.0 0.1
00:22 14.6 14.3 98 1020.4 6.0 S 9.2 0.0 0.1
00:23 14.6 14.3 98 1020.7 6.0 S 9.2 0.0 0.1
00:24 14.6 14.3 98 1020.3 7.6 SW 9.2 0.0 0.1
00:25 14.6 14.3 98 1020.7 8.3 W 9.2 0.0 0.1
00:27 14.6 14.3 98 1020.4 6.0 W 9.2 0.0 0.1
00:28 14.6 14.3 98 1020.5 8.3 S 9.2 0.0 0.1
00:29 14.6 14.3 98 1020.6 8.3 S 8.3 0.0 0.1
00:30 14.6 14.3 98 1020.4 7.6 W 8.3 0.0 0.1
00:31 14.6 14.3 98 1020.4 8.3 W 8.3 0.0 0.1
00:32 14.6 14.3 98 1020.5 6.9 S 8.3 0.0 0.1
00:33 14.6 14.3 98 1020.5 9.2 S 9.2 0.0 0.1
00:34 14.6 14.3 98 1020.5 9.2 S 9.2 0.0 0.1
00:35 14.6 14.3 98 1020.6 6.9 W 9.2 0.0 0.1
00:36 14.6 14.3 98 1020.4 6.9 W 9.2 0.0 0.1
00:37 14.6 14.3 98 1020.4 7.6 S 9.2 0.0 0.1
00:38 14.6 14.3 98 1020.3 9.8 W 9.8 0.0 0.1
00:39 14.6 14.3 98 1020.5 6.0 S 9.8 0.0 0.1
00:41 14.6 14.3 98 1020.7 7.6 S 9.8 0.0 0.1
00:42 14.6 14.3 98 1020.6 7.6 S 9.8 0.0 0.1
00:43 14.6 14.3 98 1020.4 7.6 S 9.8 0.0 0.1
00:44 14.6 14.3 98 1020.6 7.6 S 10.7 0.0 0.1
00:45 14.6 14.3 98 1020.6 7.6 S 10.7 0.0 0.1
00:46 14.6 14.3 98 1020.6 6.0 W 10.7 0.0 0.1
00:47 14.6 14.3 98 1020.5 6.9 W 10.7 0.0 0.1
00:48 14.6 14.3 98 1020.7 6.9 S 10.7 0.0 0.1
00:49 14.6 14.3 98 1020.6 6.0 W 10.7 0.0 0.1
00:50 14.6 14.3 98 1020.6 6.0 SSW 10.7 0.0 0.1
00:51 14.6 14.3 98 1020.7 8.3 W 10.7 0.0 0.1
00:52 14.6 14.3 98 1020.5 8.3 W 10.7 0.0 0.1
00:53 14.5 14.2 98 1020.6 8.3 S 10.7 0.0 0.1
00:55 14.5 14.2 98 1020.2 6.0 S 8.3 0.0 0.1
00:56 14.5 14.2 98 1020.6 6.9 S 8.3 0.0 0.1
00:57 14.6 14.3 98 1020.7 8.3 W 8.3 0.0 0.1
00:58 14.6 14.3 98 1020.6 7.6 W 8.3 0.0 0.1
00:59 14.6 14.3 98 1020.5 8.3 W 8.3 0.0 0.1
01:00 14.6 14.3 98 1020.4 6.9 W 8.3 0.0 0.1
01:01 14.6 14.3 98 1020.6 6.9 W 8.3 0.0 0.1
01:02 14.6 14.3 98 1020.4 6.9 W 8.3 0.0 0.1
01:03 14.6 14.3 98 1020.6 6.9 W 8.3 0.0 0.1
01:04 14.6 14.3 98 1020.4 6.9 W 8.3 0.0 0.1
01:05 14.6 14.3 98 1020.2 6.9 W 8.3 0.0 0.1
01:06 14.6 14.3 98 1020.2 6.9 W 8.3 0.0 0.1
01:07 14.6 14.3 98 1020.4 6.9 W 8.3 0.0 0.1
01:09 14.6 14.3 98 1020.1 7.6 S 7.6 0.0 0.1
01:10 14.6 14.3 98 1020.4 7.6 S 7.6 0.0 0.1
01:11 14.6 14.3 98 1020.6 7.6 S 7.6 0.0 0.1
01:12 14.6 14.3 98 1020.3 9.8 SSW 9.8 0.0 0.1
01:13 14.6 14.3 98 1020.3 9.8 SSW 9.8 0.0 0.1
01:14 14.6 14.3 98 1020.3 6.0 SSE 9.8 0.0 0.1
01:15 14.6 14.3 98 1020.4 6.0 S 9.8 0.0 0.1
01:16 14.6 14.3 98 1020.4 8.3 SE 9.8 0.0 0.1
01:17 14.6 14.3 98 1020.5 7.6 S 9.8 0.0 0.1
01:18 14.6 14.3 98 1020.4 9.2 W 9.8 0.0 0.1
01:19 14.6 14.3 98 1020.3 8.3 S 9.8 0.0 0.1
01:20 14.6 14.3 98 1020.3 8.3 S 9.8 0.0 0.1
01:21 14.6 14.3 98 1020.5 10.7 S 10.7 0.0 0.1
01:23 14.6 14.3 98 1020.5 9.8 S 10.7 0.0 0.1
01:24 14.6 14.3 98 1020.2 7.6 W 10.7 0.0 0.1
01:25 14.6 14.3 98 1020.4 8.3 S 10.7 0.0 0.1
01:26 14.6 14.3 98 1020.2 8.3 S 10.7 0.0 0.1
01:27 14.6 14.3 98 1020.3 8.3 W 10.7 0.0 0.1
01:28 14.6 14.3 98 1020.6 8.3 S 10.7 0.0 0.1
01:29 14.6 14.3 98 1020.4 6.0 S 10.7 0.0 0.1
01:30 14.6 14.3 98 1020.3 7.6 N 10.7 0.0 0.1
01:31 14.6 14.3 98 1020.3 8.3 SE 10.7 0.0 0.1
01:32 14.6 14.3 98 1020.5 7.6 W 10.7 0.0 0.1
01:33 14.6 14.3 98 1020.3 7.6 W 9.8 0.0 0.1
01:34 14.6 14.3 98 1020.4 6.9 S 8.3 0.0 0.1
01:35 14.6 14.3 98 1020.4 8.3 S 8.3 0.0 0.1
01:37 14.6 14.3 98 1020.1 7.6 SW 8.3 0.0 0.1
01:38 14.6 14.3 98 1020.5 9.8 SSW 9.8 0.0 0.1
01:39 14.6 14.3 98 1020.1 9.8 S 9.8 0.0 0.1
01:40 14.6 14.3 98 1020.2 7.6 W 9.8 0.0 0.1
01:41 14.6 14.3 98 1020.2 7.6 W 9.8 0.0 0.1
01:42 14.6 14.3 98 1020.4 8.3 S 9.8 0.0 0.1
01:43 14.6 14.3 98 1020.4 9.2 SW 9.8 0.0 0.1
01:44 14.6 14.3 98 1020.2 7.6 W 9.8 0.0 0.1
01:45 14.6 14.3 98 1020.3 7.6 W 9.8 0.0 0.1
01:46 14.6 14.3 98 1020.2 9.2 N 9.8 0.0 0.1
01:47 14.6 14.3 98 1020.4 9.2 NW 9.8 0.0 0.1
01:48 14.6 14.3 98 1020.4 7.6 W 9.8 0.0 0.1
01:49 14.6 14.3 98 1020.2 10.7 S 10.7 0.0 0.1
01:51 14.6 14.3 98 1020.4 9.2 SE 10.7 0.0 0.1
01:52 14.6 14.3 98 1020.6 9.8 S 10.7 0.0 0.1
01:53 14.6 14.3 98 1020.3 8.3 S 10.7 0.0 0.1
01:54 14.6 14.3 98 1020.4 9.2 SW 10.7 0.0 0.1
01:55 14.6 14.3 98 1020.4 9.2 SW 10.7 0.0 0.1
01:56 14.6 14.3 98 1020.3 6.9 W 10.7 0.0 0.1
01:57 14.6 14.3 98 1020.5 10.7 S 10.7 0.0 0.1
01:58 14.6 14.3 98 1020.5 10.7 S 10.7 0.0 0.1
01:59 14.6 14.3 98 1020.5 10.7 S 10.7 0.0 0.1
02:00 14.5 14.2 98 1020.6 11.4 SSE 11.4 0.0 0.1
02:01 14.5 14.2 98 1020.4 9.2 SW 11.4 0.0 0.1
02:02 14.5 14.2 98 1020.4 12.1 S 12.1 0.0 0.1
02:04 14.5 14.2 98 1020.5 10.7 W 12.1 0.0 0.1
02:05 14.5 14.2 98 1020.4 9.8 S 12.1 0.0 0.1
02:06 14.5 14.2 98 1020.5 6.9 W 12.1 0.0 0.1
02:07 14.5 14.2 98 1020.4 6.9 W 12.1 0.0 0.1
02:08 14.5 14.2 98 1020.4 9.2 S 12.1 0.0 0.1
02:09 14.5 14.2 98 1020.4 9.2 S 12.1 0.0 0.1
02:10 14.5 14.2 98 1020.3 10.7 W 12.1 0.0 0.1
02:11 14.4 14.1 98 1020.5 10.7 S 13.0 0.0 0.1
02:12 14.4 14.1 98 1020.6 9.2 W 13.0 0.0 0.1
02:13 14.4 14.1 98 1020.4 9.2 S 13.0 0.0 0.1
02:14 14.4 14.1 98 1020.3 8.3 S 13.0 0.0 0.1
02:15 14.4 14.1 98 1020.3 8.3 SW 13.0 0.0 0.1
02:16 14.4 14.1 98 1020.4 9.2 N 13.0 0.0 0.1
02:17 14.4 14.1 98 1020.4 8.3 N 13.0 0.0 0.1
02:19 14.4 14.1 98 1020.4 6.9 W 13.0 0.0 0.1
02:20 14.4 14.1 98 1020.4 6.0 SW 13.0 0.0 0.1
02:21 14.4 14.1 98 1020.3 9.8 SW 11.4 0.0 0.1
02:22 14.4 14.1 98 1020.5 9.8 W 11.4 0.0 0.1
02:23 14.4 14.1 98 1020.1 9.8 W 11.4 0.0 0.1
02:24 14.4 14.1 98 1020.3 11.4 SW 11.4 0.0 0.1
02:25 14.3 14.0 98 1020.4 9.8 W 11.4 0.0 0.1
02:26 14.3 14.0 98 1020.5 8.3 SSW 11.4 0.0 0.1
02:27 14.3 14.0 98 1020.4 9.2 W 11.4 0.0 0.1
02:28 14.3 14.0 98 1020.5 9.2 S 11.4 0.0 0.1
02:29 14.3 14.0 98 1020.2 7.6 SW 11.4 0.0 0.1
02:30 14.3 14.0 98 1020.3 8.3 SW 11.4 0.0 0.1
02:31 14.3 14.0 98 1020.2 6.9 S 11.4 0.0 0.1
02:33 14.3 14.0 98 1020.3 8.3 SW 11.4 0.0 0.1
02:34 14.3 14.0 98 1020.3 8.3 S 9.8 0.0 0.1
02:35 14.3 14.0 98 1020.2 9.2 W 9.2 0.0 0.1
02:36 14.2 13.9 98 1020.3 6.0 S 9.2 0.0 0.1
02:37 14.2 13.9 98 1020.3 6.0 S 9.2 0.0 0.1
02:38 14.2 13.9 98 1020.5 7.6 S 9.2 0.0 0.1
02:39 14.2 13.9 98 1020.3 9.2 SW 9.2 0.0 0.1
02:40 14.2 13.9 98 1020.3 9.2 WSW 9.2 0.0 0.1
02:41 14.2 13.9 98 1020.4 7.6 W 9.2 0.0 0.1
02:42 14.2 13.9 98 1020.3 7.6 SSW 9.2 0.0 0.1
02:43 14.2 13.9 98 1020.4 9.2 SW 9.2 0.0 0.1
02:44 14.2 13.9 98 1020.3 9.2 S 9.2 0.0 0.1
02:45 14.2 13.9 98 1020.4 8.3 S 9.2 0.0 0.1
02:47 14.2 13.9 98 1020.4 12.1 W 12.1 0.0 0.1
02:48 14.1 13.8 98 1020.5 9.8 NW 12.1 0.0 0.1
02:49 14.1 13.8 98 1020.2 7.6 S 12.1 0.0 0.1
02:50 14.1 13.8 98 1020.3 7.6 S 12.1 0.0 0.1
02:51 14.1 13.8 98 1020.2 7.6 W 12.1 0.0 0.1
02:52 14.1 13.8 98 1020.3 7.6 W 12.1 0.0 0.1
02:53 14.1 13.8 98 1020.3 6.0 W 12.1 0.0 0.1
02:54 14.1 13.8 98 1020.4 8.3 W 12.1 0.0 0.1
02:55 14.1 13.8 98 1020.4 9.8 W 12.1 0.0 0.1
02:56 14.0 13.7 98 1020.2 6.9 SW 12.1 0.0 0.1
02:57 14.0 13.7 98 1020.5 9.2 W 12.1 0.0 0.1
02:58 14.0 13.7 98 1020.3 9.2 W 9.8 0.0 0.1
02:59 14.0 13.7 98 1020.3 9.2 W 9.8 0.0 0.1
03:01 14.0 13.7 98 1020.0 8.3 S 9.8 0.0 0.1
03:02 14.0 13.7 98 1020.3 8.3 S 9.8 0.0 0.1
03:03 14.0 13.7 98 1020.2 8.3 S 9.8 0.0 0.1
03:04 14.0 13.7 98 1020.1 8.3 S 9.8 0.0 0.1
03:05 14.0 13.7 98 1020.1 8.3 S 9.8 0.0 0.1
03:06 14.0 13.7 98 1020.5 8.3 S 9.2 0.0 0.1
03:07 13.9 13.6 98 1020.3 6.0 W 9.2 0.0 0.1
03:08 13.9 13.6 98 1020.3 5.4 S 9.2 0.0 0.1
03:09 13.9 13.6 98 1020.4 6.9 W 9.2 0.0 0.1
03:10 13.8 13.5 98 1020.4 6.9 W 8.3 0.0 0.1
03:11 13.8 13.5 98 1020.2 9.2 N 9.2 0.0 0.1
03:12 13.8 13.5 98 1020.5 7.6 W 9.2 0.0 0.1
03:13 13.8 13.5 98 1020.4 8.3 S 9.2 0.0 0.1
03:15 13.8 13.5 98 1020.2 7.6 SW 11.4 0.0 0.1
03:16 13.8 13.5 98 1020.2 7.6 W 11.4 0.0 0.1
03:17 13.8 13.5 98 1020.3 9.2 W 11.4 0.0 0.1
03:18 13.7 13.4 98 1020.3 9.8 W 11.4 0.0 0.1
03:19 13.7 13.4 98 1020.3 9.2 S 11.4 0.0 0.1
03:20 13.7 13.4 98 1020.3 9.8 S 11.4 0.0 0.1
03:21 13.7 13.4 98 1020.2 9.8 W 11.4 0.0 0.1
03:22 13.7 13.4 98 1020.3 9.2 SW 11.4 0.0 0.1
03:23 13.7 13.4 98 1020.1 6.0 W 11.4 0.0 0.1
03:24 13.7 13.4 98 1020.2 6.9 S 11.4 0.0 0.1
03:25 13.7 13.4 98 1020.0 8.3 W 9.8 0.8 0.1
03:26 13.7 13.4 98 1020.0 8.3 SW 9.8 0.8 0.1
03:27 13.7 13.4 98 1020.0 9.2 SW 9.8 0.8 0.1
03:29 13.6 13.3 98 1020.0 8.3 NW 9.8 0.8 0.1
03:30 13.6 13.3 98 1020.0 8.3 W 9.8 0.0 0.1
03:31 13.6 13.3 98 1020.2 6.0 W 9.2 0.0 0.1
03:32 13.6 13.3 98 1020.4 8.3 W 9.2 0.0 0.1
03:33 13.6 13.3 98 1020.2 8.3 WSW 9.2 0.0 0.1
03:34 13.6 13.3 98 1020.2 8.3 WSW 9.2 0.0 0.1
03:35 13.6 13.3 98 1020.1 6.0 W 9.2 0.0 0.1
03:36 13.6 13.3 98 1020.1 5.4 W 9.2 0.0 0.1
03:37 13.6 13.3 98 1020.1 6.9 S 9.2 0.0 0.1
03:38 13.6 13.3 98 1020.1 6.0 WSW 8.3 0.0 0.1
03:39 13.6 13.3 98 1020.0 7.6 W 8.3 0.0 0.1
03:40 13.5 13.2 98 1020.0 7.6 W 8.3 0.0 0.1
03:41 13.5 13.2 98 1020.1 6.9 W 8.3 0.0 0.1
03:43 13.5 13.2 98 1020.1 6.0 S 8.3 0.0 0.1
03:44 13.5 13.2 98 1020.2 6.0 W 7.6 0.0 0.1
03:45 13.5 13.2 98 1020.2 7.6 SW 7.6 0.0 0.1
03:46 13.5 13.2 98 1020.2 7.6 S 7.6 0.0 0.1
03:47 13.5 13.2 98 1020.0 6.0 S 7.6 0.0 0.1
03:48 13.5 13.2 98 1020.1 6.0 W 7.6 0.0 0.1
03:49 13.5 13.2 98 1020.0 6.0 W 7.6 0.0 0.1
03:50 13.5 13.2 98 1020.3 4.5 SW 7.6 0.0 0.1
03:51 13.5 13.2 98 1020.1 6.0 SW 7.6 0.0 0.1
03:52 13.5 13.0 97 1020.0 6.0 W 7.6 0.0 0.1
03:53 13.5 13.0 97 1020.0 6.9 W 7.6 0.0 0.1
03:54 13.5 13.0 97 1020.0 6.9 W 7.6 0.0 0.1
03:55 13.4 12.9 97 1020.1 6.9 W 7.6 0.0 0.1
03:56 13.4 12.9 97 1020.0 6.0 W 7.6 0.0 0.1
03:58 13.4 12.9 97 1020.0 5.4 W 6.9 0.0 0.1
03:59 13.4 12.9 97 1020.1 5.4 SW 6.9 0.0 0.1
04:00 13.4 12.9 97 1020.1 6.9 W 6.9 0.0 0.1
04:01 13.4 12.9 97 1020.2 6.9 SW 6.9 0.0 0.1
04:02 13.4 12.9 97 1020.2 6.9 SW 6.9 0.0 0.1
04:03 13.4 12.9 97 1020.1 6.9 SW 6.9 0.0 0.1
04:04 13.4 12.9 97 1020.0 7.6 W 7.6 0.0 0.1
04:05 13.4 12.9 97 1020.1 7.6 SW 7.6 0.0 0.1
04:06 13.4 12.9 97 1020.1 6.0 W 7.6 0.0 0.1
04:07 13.3 12.8 97 1019.8 6.9 S 7.6 0.0 0.1
04:08 13.3 12.8 97 1020.0 6.0 W 7.6 0.0 0.1
04:09 13.3 12.8 97 1019.9 6.0 S 7.6 0.0 0.1
04:11 13.3 12.8 97 1019.9 7.6 S 7.6 0.0 0.1
04:12 13.3 12.8 97 1020.0 8.3 S 8.3 0.0 0.1
04:13 13.3 12.8 97 1019.9 6.0 S 8.3 0.0 0.1
04:14 13.3 12.8 97 1019.7 4.5 S 8.3 0.0 0.1
04:15 13.3 12.8 97 1019.8 6.9 SW 8.3 0.0 0.1
04:16 13.3 12.8 97 1019.8 6.0 S 8.3 0.0 0.1
04:17 13.2 12.7 97 1019.7 6.9 SW 8.3 0.0 0.1
04:18 13.2 12.7 97 1019.9 5.4 S 8.3 0.0 0.1
04:19 13.2 12.7 97 1019.7 6.9 S 8.3 0.0 0.1
04:20 13.2 12.7 97 1020.0 8.3 S 8.3 0.0 0.1
04:21 13.2 12.7 97 1019.9 7.6 S 8.3 0.0 0.1
04:22 13.2 12.7 97 1019.9 6.0 SW 8.3 0.0 0.1
04:23 13.2 12.7 97 1020.1 7.6 W 8.3 0.0 0.1
04:25 13.2 12.7 97 1020.0 6.0 W 8.3 0.0 0.1
04:26 13.2 12.7 97 1019.8 5.4 W 8.3 0.0 0.1
04:27 13.2 12.7 97 1020.0 4.5 SSW 8.3 0.0 0.1
04:28 13.2 12.7 97 1020.1 5.4 N 8.3 0.0 0.1
04:29 13.2 12.7 97 1019.8 6.0 W 8.3 0.0 0.1
04:30 13.2 12.7 97 1019.8 6.0 W 8.3 0.0 0.1
04:31 13.2 12.7 97 1019.8 6.0 S 7.6 0.0 0.1
04:32 13.2 12.7 97 1019.9 5.4 W 7.6 0.0 0.1
04:33 13.2 12.7 97 1020.0 7.6 SW 7.6 0.0 0.1
04:34 13.2 12.7 97 1019.9 7.6 S 7.6 0.0 0.1
04:35 13.2 12.7 97 1019.9 4.5 SW 7.6 0.0 0.1
04:36 13.2 12.7 97 1019.9 9.2 NW 9.2 0.0 0.1
04:37 13.2 12.7 97 1019.9 8.3 W 9.2 0.0 0.1
04:39 13.2 12.7 97 1020.0 6.9 W 9.2 0.0 0.1
04:40 13.2 12.7 97 1020.0 10.7 W 10.7 0.0 0.1
04:41 13.2 12.7 97 1020.0 8.3 W 10.7 0.0 0.1
04:42 13.2 12.7 97 1020.0 7.6 WSW 10.7 0.0 0.1
04:43 13.2 12.7 97 1020.0 6.0 W 10.7 0.0 0.1
04:44 13.2 12.7 97 1019.9 6.0 W 10.7 0.0 0.1
04:45 13.2 12.7 97 1020.0 7.6 W 10.7 0.0 0.1
04:46 13.2 12.7 97 1020.0 6.9 W 10.7 0.0 0.1
04:47 13.2 12.7 97 1019.8 5.4 W 10.7 0.0 0.1
04:48 13.2 12.7 97 1020.2 7.6 W 10.7 0.0 0.1
04:49 13.2 12.7 97 1020.1 7.6 NW 10.7 0.0 0.1
04:50 13.2 12.7 97 1019.8 6.9 SW 10.7 0.0 0.1
04:51 13.3 12.8 97 1020.0 7.6 WSW 10.7 0.0 0.1
04:52 13.3 12.8 97 1020.0 7.6 SW 8.3 0.0 0.1
04:54 13.3 12.8 97 1020.2 6.0 W 8.3 0.0 0.1
04:55 13.3 12.8 97 1020.1 6.0 W 8.3 0.0 0.1
04:56 13.3 12.8 97 1020.0 6.9 W 8.3 0.0 0.1
04:57 13.3 12.8 97 1020.0 6.9 S 8.3 0.0 0.1
04:58 13.3 12.8 97 1020.0 6.9 S 8.3 0.0 0.1
04:59 13.3 12.8 97 1020.1 7.6 S 8.3 0.0 0.1
05:00 13.3 12.8 97 1020.1 6.9 W 8.3 0.0 0.1
05:01 13.3 12.8 97 1020.1 6.9 W 7.6 0.0 0.1
05:02 13.3 12.8 97 1020.2 6.9 W 7.6 0.0 0.1
05:03 13.3 12.8 97 1020.0 6.9 W 7.6 0.0 0.1
05:04 13.3 12.8 97 1020.1 6.9 W 7.6 0.0 0.1
05:05 13.3 12.8 97 1020.1 6.9 W 7.6 0.0 0.1
05:07 13.3 12.8 97 1020.1 6.9 W 7.6 0.0 0.1
05:08 13.4 12.9 97 1020.0 6.9 W 7.6 0.0 0.1
05:09 13.4 12.9 97 1020.3 7.6 W 7.6 0.0 0.1
05:10 13.4 12.9 97 1020.0 6.9 SW 7.6 0.0 0.1
05:11 13.4 12.9 97 1020.1 6.9 SW 7.6 0.0 0.1
05:12 13.4 12.9 97 1020.3 9.2 W 9.2 0.0 0.1
05:13 13.4 12.9 97 1020.3 9.2 SW 9.2 0.0 0.1
05:14 13.4 12.9 97 1020.2 8.3 W 9.2 0.0 0.1
05:15 13.4 12.9 97 1020.2 6.0 WSW 9.2 0.0 0.1
05:16 13.4 13.1 98 1020.0 8.3 W 9.2 0.0 0.1
05:17 13.4 13.1 98 1020.3 8.3 W 9.2 0.0 0.1
05:18 13.4 13.1 98 1020.0 6.0 S 9.2 0.0 0.1
05:19 13.4 13.1 98 1020.2 9.2 WSW 9.2 0.0 0.1
05:20 13.4 13.1 98 1020.2 6.0 S 9.2 0.0 0.1
05:22 13.4 13.1 98 1020.3 8.3 SW 9.2 0.0 0.1
05:23 13.4 13.1 98 1019.9 7.6 W 9.2 0.0 0.1
05:24 13.4 13.1 98 1020.2 9.8 S 9.8 0.0 0.1
05:25 13.4 13.1 98 1020.1 9.8 S 9.8 0.0 0.1
05:26 13.4 13.1 98 1020.1 9.8 S 9.8 0.0 0.1
05:27 13.4 13.1 98 1020.0 9.2 W 9.8 0.0 0.1
05:28 13.4 13.1 98 1020.3 9.8 SW 9.8 0.0 0.1
05:29 13.4 13.1 98 1020.0 9.8 W 9.8 0.0 0.1
05:30 13.4 13.1 98 1020.1 6.9 SW 9.8 0.0 0.1
05:31 13.4 13.1 98 1020.1 7.6 W 9.8 0.0 0.1
05:32 13.4 13.1 98 1020.2 8.3 SW 9.8 0.0 0.1
05:33 13.4 13.1 98 1020.3 6.9 N 9.8 0.0 0.1
05:36 13.5 13.2 98 1020.1 6.0 S 9.8 0.0 0.1
05:37 13.5 13.2 98 1019.9 6.9 S 9.8 0.0 0.1
05:38 13.5 13.2 98 1020.2 6.0 W 9.8 0.0 0.1
05:39 13.5 13.2 98 1020.0 4.5 SW 8.3 0.0 0.1
05:40 13.5 13.2 98 1020.2 6.0 W 8.3 0.0 0.1
05:41 13.5 13.2 98 1020.2 4.5 W 8.3 0.0 0.1
05:42 13.5 13.2 98 1019.9 4.5 SW 8.3 0.0 0.1
05:43 13.5 13.2 98 1020.2 6.0 W 8.3 0.0 0.1
05:44 13.5 13.2 98 1020.1 5.4 S 8.3 0.0 0.1
05:45 13.5 13.2 98 1020.0 6.0 N 6.9 0.0 0.1
05:46 13.5 13.2 98 1020.1 4.5 W 6.9 0.0 0.1
05:47 13.5 13.2 98 1020.3 6.0 S 6.9 0.0 0.1
05:49 13.5 13.2 98 1020.1 4.5 W 6.9 0.0 0.1
05:50 13.5 13.2 98 1020.3 4.5 W 6.9 0.0 0.1
05:51 13.5 13.2 98 1020.4 6.0 W 6.9 0.0 0.1
05:52 13.5 13.2 98 1020.2 5.4 W 6.9 0.0 0.1
05:53 13.5 13.2 98 1020.1 4.5 SW 6.9 0.0 0.1
05:54 13.5 13.2 98 1020.1 4.5 SW 6.9 0.0 0.1
05:55 13.5 13.2 98 1020.2 6.9 W 6.9 0.0 0.1
05:56 13.5 13.2 98 1020.2 6.9 W 7.6 0.0 0.1
05:57 13.5 13.2 98 1020.2 6.9 SW 7.6 0.0 0.1
05:58 13.5 13.2 98 1020.2 6.9 S 7.6 0.0 0.1
05:59 13.5 13.2 98 1020.2 4.5 W 7.6 0.0 0.1
06:00 13.5 13.2 98 1020.2 6.0 SW 7.6 0.0 0.1
06:01 13.5 13.2 98 1020.1 6.0 SSW 7.6 0.0 0.1
06:02 13.5 13.2 98 1020.3 6.0 S 7.6 0.0 0.1
06:04 13.5 13.2 98 1020.1 6.0 SW 7.6 0.0 0.1
06:05 13.5 13.2 98 1020.3 5.4 W 6.9 0.0 0.1
06:06 13.5 13.2 98 1020.2 7.6 WSW 7.6 0.0 0.1
06:07 13.5 13.2 98 1020.1 6.9 W 7.6 0.0 0.1
06:08 13.5 13.2 98 1020.3 6.0 SSW 7.6 0.0 0.1
06:09 13.5 13.2 98 1020.2 6.0 W 7.6 0.0 0.1
06:10 13.5 13.2 98 1020.1 6.0 W 7.6 0.0 0.1
06:11 13.5 13.2 98 1020.2 6.0 SSW 7.6 0.0 0.1
06:12 13.6 13.3 98 1020.1 5.4 W 7.6 0.0 0.1
06:13 13.6 13.3 98 1020.0 4.5 W 7.6 0.0 0.1
06:14 13.6 13.3 98 1020.1 7.6 S 7.6 0.0 0.1
06:15 13.6 13.3 98 1020.3 6.9 N 7.6 0.0 0.1
06:16 13.6 13.3 98 1020.1 6.9 W 7.6 0.0 0.1
06:18 13.6 13.3 98 1020.3 6.0 W 7.6 0.0 0.1
06:19 13.6 13.3 98 1020.1 6.0 W 7.6 0.0 0.1
06:20 13.6 13.3 98 1020.2 6.0 SW 7.6 0.0 0.1
06:21 13.6 13.3 98 1020.3 6.0 SW 7.6 0.0 0.1
06:22 13.6 13.3 98 1020.3 6.0 SW 7.6 0.0 0.1
06:23 13.6 13.3 98 1020.2 6.9 SW 7.6 0.0 0.1
06:24 13.7 13.4 98 1020.2 6.9 SW 7.6 0.0 0.1
06:25 13.7 13.4 98 1020.1 5.4 W 7.6 0.0 0.1
06:26 13.7 13.4 98 1020.2 7.6 SW 7.6 0.0 0.1
06:27 13.7 13.4 98 1020.2 6.9 W 8.3 0.0 0.1
06:28 13.7 13.4 98 1020.3 7.6 W 8.3 0.0 0.1
06:29 13.7 13.4 98 1020.4 6.0 W 8.3 0.0 0.1
06:30 13.7 13.4 98 1020.3 6.0 SW 8.3 0.8 0.2
06:32 13.7 13.4 98 1020.3 4.5 W 8.3 0.8 0.2
06:33 13.7 13.4 98 1020.4 6.0 W 8.3 0.8 0.2
06:34 13.8 13.5 98 1020.5 6.9 W 8.3 0.8 0.2
06:35 13.8 13.5 98 1020.4 8.3 S 8.3 0.0 0.2
06:36 13.8 13.5 98 1020.4 8.3 W 8.3 0.0 0.2
06:37 13.8 13.5 98 1020.3 8.3 S 8.3 0.0 0.2
06:38 13.8 13.5 98 1020.3 6.0 S 8.3 0.0 0.2
06:39 13.8 13.5 98 1020.1 6.9 SE 8.3 0.0 0.2
06:40 13.8 13.5 98 1020.3 6.0 S 8.3 0.0 0.2
06:41 13.8 13.5 98 1020.3 6.0 S 8.3 0.0 0.2
06:42 13.8 13.5 98 1020.4 4.5 S 8.3 0.0 0.2
06:43 13.8 13.5 98 1020.3 6.0 W 8.3 0.0 0.2
06:44 13.8 13.5 98 1020.2 6.9 N 8.3 0.0 0.2
06:46 13.9 13.6 98 1020.4 6.0 S 8.3 0.0 0.2
06:47 13.9 13.6 98 1020.2 5.4 WSW 6.9 0.0 0.2
06:48 13.9 13.6 98 1020.0 4.5 S 6.9 0.0 0.2
06:49 13.9 13.6 98 1020.3 6.0 NW 6.9 0.0 0.2
06:50 13.9 13.6 98 1020.2 6.0 NW 6.9 0.0 0.2
06:51 13.9 13.6 98 1020.4 6.0 NW 6.9 0.0 0.2
06:52 13.9 13.6 98 1020.2 6.0 NW 6.9 0.0 0.2
06:53 13.9 13.6 98 1020.3 8.3 W 8.3 0.0 0.2
06:54 14.0 13.7 98 1020.1 8.3 SW 8.3 0.0 0.2
06:55 14.0 13.7 98 1020.3 4.5 S 8.3 0.0 0.2
06:56 14.0 13.7 98 1020.3 5.4 SW 8.3 0.0 0.2
06:57 14.0 13.7 98 1020.1 4.5 SSW 8.3 0.0 0.2
06:59 14.0 13.7 98 1020.2 9.2 W 9.2 0.0 0.2
07:00 14.1 13.8 98 1020.3 9.8 N 9.8 0.0 0.2
07:01 14.1 13.8 98 1020.4 9.8 N 9.8 0.0 0.2
07:02 14.1 13.8 98 1020.3 9.8 N 9.8 0.0 0.2
07:03 14.1 13.8 98 1020.2 9.8 N 9.8 0.0 0.2
07:04 14.1 13.8 98 1020.4 9.8 N 9.8 0.0 0.2
07:05 14.1 13.8 98 1020.4 9.8 N 9.8 0.0 0.2
07:06 14.1 13.8 98 1020.2 9.8 N 9.8 0.0 0.2
07:07 14.1 13.8 98 1020.5 9.8 N 9.8 0.0 0.2
07:08 14.1 13.8 98 1020.5 11.4 S 11.4 0.0 0.2
07:09 14.1 13.8 98 1020.4 9.2 W 11.4 0.0 0.2
07:10 14.1 13.8 98 1020.5 8.3 SW 11.4 0.0 0.2
07:11 14.1 13.8 98 1020.4 7.6 N 11.4 0.0 0.2
07:12 14.1 13.8 98 1020.3 8.3 SSW 11.4 0.0 0.2
07:14 14.1 13.8 98 1020.4 8.3 SW 11.4 0.0 0.2
07:15 14.2 13.9 98 1020.4 5.4 S 11.4 0.0 0.2
07:16 14.2 13.9 98 1020.4 6.0 W 11.4 0.0 0.2
07:17 14.2 13.9 98 1020.5 7.6 N 11.4 0.0 0.2
07:18 14.2 13.9 98 1020.5 7.6 N 11.4 0.0 0.2
07:19 14.2 13.9 98 1020.4 6.0 N 9.8 0.0 0.2
07:20 14.2 13.9 98 1020.3 6.9 SW 9.8 0.0 0.2
07:21 14.2 13.9 98 1020.4 6.9 S 8.3 0.0 0.2
07:22 14.2 13.9 98 1020.4 6.9 S 8.3 0.0 0.2
07:23 14.2 13.9 98 1020.4 8.3 SE 8.3 0.0 0.2
07:24 14.2 13.9 98 1020.5 8.3 W 8.3 0.0 0.2
07:25 14.2 13.9 98 1020.3 7.6 SSW 8.3 0.0 0.2
07:26 14.2 13.9 98 1020.4 7.6 SW 10.7 0.0 0.2
07:28 14.2 13.9 98 1020.5 7.6 W 10.7 0.0 0.2
07:29 14.2 13.9 98 1020.6 7.6 W 10.7 0.0 0.2
07:30 14.3 14.0 98 1020.5 7.6 W 10.7 0.0 0.2
07:31 14.3 14.0 98 1020.6 7.6 W 10.7 0.0 0.2
07:32 14.3 14.0 98 1020.7 7.6 W 10.7 0.0 0.2
07:33 14.3 14.0 98 1020.6 6.9 W 10.7 0.0 0.2
07:34 14.3 14.0 98 1020.5 7.6 W 10.7 0.0 0.2
07:35 14.3 14.0 98 1020.6 10.7 SW 10.7 0.0 0.2
07:36 14.3 14.0 98 1020.5 5.4 SW 10.7 0.0 0.2
07:37 14.3 14.0 98 1020.4 6.9 SW 10.7 0.0 0.2
07:38 14.3 14.0 98 1020.3 6.9 W 10.7 0.0 0.2
07:39 14.3 14.0 98 1020.6 6.0 S 10.7 0.0 0.2
07:41 14.3 14.0 98 1020.6 9.8 NW 10.7 0.0 0.2
07:42 14.3 14.0 98 1020.6 6.9 W 10.7 0.0 0.2
07:43 14.3 14.0 98 1020.7 8.3 W 10.7 0.0 0.2
07:44 14.3 14.0 98 1020.7 8.3 W 10.7 0.0 0.2
07:45 14.3 14.0 98 1020.7 8.3 W 9.8 0.0 0.2
07:46 14.3 14.0 98 1020.7 8.3 W 9.8 0.0 0.2
07:47 14.3 14.0 98 1020.7 7.6 SW 9.8 0.0 0.2
07:48 14.3 14.0 98 1020.8 7.6 SW 9.8 0.0 0.2
07:49 14.3 14.0 98 1020.8 7.6 W 9.8 0.0 0.2
07:50 14.3 14.0 98 1020.7 7.6 W 9.8 0.0 0.2
07:51 14.4 14.1 98 1020.3 7.6 NW 9.8 0.0 0.2
07:52 14.4 14.1 98 1020.7 7.6 SW 8.3 0.0 0.2
07:53 14.4 14.1 98 1020.7 6.9 W 8.3 0.0 0.2
07:54 14.4 14.1 98 1020.6 9.2 WSW 9.2 0.0 0.2
07:56 14.4 14.1 98 1020.8 6.9 W 9.8 0.0 0.2
07:57 14.4 14.1 98 1020.7 6.9 W 9.8 0.0 0.2
07:58 14.4 14.1 98 1020.7 6.9 W 9.8 0.0 0.2
07:59 14.4 14.1 98 1020.5 7.6 N 9.8 0.0 0.2
08:00 14.4 14.1 98 1020.7 6.9 W 9.8 0.0 0.2
08:01 14.4 14.1 98 1020.7 7.6 WSW 9.8 0.0 0.2
08:02 14.4 14.1 98 1020.7 7.6 WSW 9.8 0.0 0.2
08:03 14.4 14.1 98 1020.9 8.3 W 9.8 0.0 0.2
08:04 14.4 14.1 98 1020.9 9.8 SW 9.8 0.0 0.2
08:05 14.4 14.1 98 1020.8 9.8 SW 9.8 0.0 0.2
08:06 14.5 14.4 99 1020.6 6.9 N 9.8 0.0 0.2
08:07 14.5 14.4 99 1020.8 4.5 SW 9.8 0.0 0.2
08:09 14.5 14.4 99 1020.7 5.4 N 9.8 0.8 0.3
08:10 14.5 14.4 99 1020.7 6.0 N 9.8 0.8 0.3
08:11 14.5 14.4 99 1020.8 6.0 N 9.8 0.8 0.3
08:12 14.6 14.5 99 1020.5 9.2 WSW 9.8 0.8 0.3
08:13 14.6 14.5 99 1020.8 8.3 WSW 9.8 0.8 0.3
08:14 14.6 14.5 99 1020.8 8.3 WSW 9.8 0.0 0.3
08:15 14.6 14.5 99 1020.9 7.6 W 9.8 0.0 0.3
08:16 14.6 14.5 99 1020.7 6.9 SW 9.2 0.0 0.3
08:17 14.6 14.5 99 1020.8 6.9 SW 9.2 0.0 0.3
08:18 14.6 14.5 99 1020.8 6.0 WSW 9.2 0.0 0.3
08:19 14.6 14.5 99 1020.8 9.2 SW 9.2 0.0 0.3
08:20 14.6 14.5 99 1020.8 9.2 SW 9.2 0.0 0.3
08:21 14.7 14.6 99 1020.8 6.9 W 9.2 0.0 0.3
08:22 14.7 14.6 99 1021.0 6.9 WSW 9.2 0.0 0.3
08:24 14.7 14.6 99 1020.9 7.6 W 9.2 0.0 0.3
08:25 14.7 14.6 99 1020.8 7.6 W 9.2 0.0 0.3
08:26 14.7 14.6 99 1020.9 7.6 W 9.2 0.0 0.3
08:27 14.7 14.6 99 1020.8 8.3 S 9.2 0.0 0.3
08:28 14.8 14.7 99 1020.8 6.9 WSW 9.2 0.0 0.3
08:29 14.8 14.7 99 1020.8 6.9 W 9.2 0.0 0.3
08:30 14.8 14.7 99 1020.9 8.3 SW 9.2 0.0 0.3
08:31 14.8 14.7 99 1020.9 6.0 W 8.3 0.0 0.3
08:32 14.8 14.7 99 1020.9 5.4 S 8.3 0.0 0.3
08:33 14.8 14.7 99 1020.8 5.4 S 8.3 0.0 0.3
08:34 14.8 14.7 99 1021.0 5.4 S 8.3 0.0 0.3
08:35 14.8 14.7 99 1020.9 6.9 W 8.3 0.0 0.3
08:36 14.9 14.8 99 1020.8 9.8 W 9.8 0.0 0.3
08:38 14.9 14.8 99 1020.9 9.2 NW 9.8 0.0 0.3
08:39 14.9 14.8 99 1020.9 9.2 W 9.8 0.0 0.3
08:40 14.9 14.8 99 1021.0 6.0 W 9.8 0.0 0.3
08:41 14.9 14.8 99 1020.9 6.9 S 9.8 0.0 0.3
08:42 14.9 14.8 99 1020.9 6.9 S 9.8 0.0 0.3
08:43 15.0 14.9 99 1020.9 9.2 WSW 9.8 0.0 0.3
08:44 15.0 14.9 99 1020.8 11.4 W 11.4 0.0 0.3
08:45 15.0 14.9 99 1020.8 11.4 W 11.4 0.0 0.3
08:46 15.0 14.9 99 1021.0 9.2 W 11.4 0.0 0.3
08:47 15.0 14.9 99 1020.9 6.0 SW 11.4 0.0 0.3
08:48 15.0 14.9 99 1021.0 6.0 SW 11.4 0.0 0.3
08:49 15.0 14.9 99 1020.8 7.6 W 11.4 0.0 0.3
08:50 15.0 14.9 99 1021.1 11.4 NW 11.4 0.0 0.3
08:52 15.1 15.0 99 1021.1 8.3 W 11.4 0.8 0.3
08:53 15.1 15.0 99 1020.7 8.3 S 11.4 0.8 0.3
08:54 15.1 15.0 99 1020.9 8.3 S 11.4 0.8 0.3
08:55 15.1 15.0 99 1020.9 7.6 SSW 11.4 0.8 0.3
08:56 15.1 15.0 99 1021.1 7.6 S 11.4 0.8 0.3
08:57 15.1 15.0 99 1020.9 7.6 S 11.4 0.0 0.3
08:58 15.1 15.0 99 1020.9 7.6 S 11.4 0.0 0.3
08:59 15.1 15.0 99 1020.9 8.3 SW 11.4 0.0 0.3
09:00 15.1 15.0 99 1021.1 8.3 SW 11.4 0.0 0.3
09:01 15.1 15.0 99 1021.0 8.3 SW 8.3 0.0 0.3
09:02 15.1 15.0 99 1021.1 8.3 SW 8.3 0.0 0.3
09:03 15.1 15.0 99 1021.1 8.3 SW 8.3 0.0 0.3
09:04 15.1 15.0 99 1021.2 8.3 SW 8.3 0.0 0.3
09:06 15.1 15.0 99 1021.1 7.6 WSW 8.3 0.0 0.3
09:07 15.1 15.0 99 1020.9 7.6 WSW 8.3 0.0 0.3
09:08 15.1 15.0 99 1021.1 8.3 W 8.3 0.0 0.3
09:09 15.1 15.0 99 1021.1 7.6 W 8.3 0.0 0.3
09:10 15.1 15.0 99 1020.9 7.6 N 8.3 0.0 0.3
09:11 15.1 15.0 99 1021.0 6.9 WSW 8.3 0.0 0.3
09:12 15.1 15.0 99 1021.1 7.6 W 8.3 0.0 0.3
09:13 15.1 15.0 99 1021.0 7.6 SW 8.3 0.0 0.3
09:14 15.1 15.0 99 1021.0 7.6 W 8.3 0.0 0.3
09:15 15.1 15.0 99 1021.1 7.6 W 8.3 0.0 0.3
09:16 15.1 15.0 99 1021.0 9.8 W 9.8 0.0 0.3
09:17 15.1 15.0 99 1021.2 7.6 NW 9.8 0.0 0.3
09:18 15.1 15.0 99 1021.2 6.9 W 9.8 0.0 0.3
09:20 15.1 15.0 99 1021.1 8.3 SW 9.8 0.0 0.3
09:21 15.1 15.0 99 1021.1 8.3 W 9.8 0.0 0.3
09:22 15.1 15.0 99 1021.0 9.2 W 9.8 0.0 0.3
09:23 15.1 15.0 99 1021.0 9.2 WSW 9.8 0.0 0.3
09:24 15.1 15.0 99 1021.1 7.6 W 9.8 0.0 0.3
09:25 15.1 15.0 99 1021.1 7.6 W 9.8 0.0 0.3
09:26 15.1 15.0 99 1021.0 7.6 W 9.8 0.0 0.3
09:27 15.1 15.0 99 1021.3 7.6 W 9.2 0.0 0.3
09:28 15.1 15.0 99 1021.2 8.3 S 9.2 0.0 0.3
09:29 15.1 15.0 99 1021.2 9.2 W 9.2 0.0 0.3
09:30 15.1 15.0 99 1021.0 7.6 W 9.2 0.0 0.3
09:31 15.1 15.0 99 1021.3 9.8 S 9.8 0.0 0.3
09:32 15.0 14.9 99 1021.2 9.2 WSW 9.8 0.0 0.3
09:34 15.0 14.9 99 1021.1 6.0 W 9.8 0.0 0.3
09:35 15.1 15.0 99 1021.1 7.6 WSW 9.8 0.0 0.3
09:36 15.1 15.0 99 1020.9 8.3 SW 9.8 0.0 0.3
09:37 15.1 15.0 99 1020.9 6.9 W 9.8 0.0 0.3
09:38 15.1 15.0 99 1021.1 6.0 W 9.8 0.0 0.3
09:39 15.2 15.1 99 1021.3 8.3 S 9.8 0.0 0.3
09:40 15.2 15.1 99 1020.9 11.4 W 11.4 0.0 0.3
09:41 15.3 15.2 99 1020.9 10.7 WSW 11.4 0.0 0.3
09:42 15.3 15.2 99 1021.0 10.7 W 11.4 0.0 0.3
09:43 15.3 15.2 99 1021.0 8.3 SW 11.4 0.0 0.3
09:44 15.4 15.3 99 1021.1 7.6 WSW 11.4 0.0 0.3
09:45 15.4 15.3 99 1021.0 6.9 WSW 11.4 0.0 0.3
09:46 15.4 15.3 99 1021.0 8.3 W 11.4 0.0 0.3
09:48 15.4 15.3 99 1020.8 6.9 S 11.4 0.0 0.3
09:49 15.4 15.3 99 1021.1 6.9 S 11.4 0.0 0.3
09:50 15.4 15.3 99 1021.2 6.9 S 10.7 0.0 0.3
09:51 15.4 15.3 99 1021.1 9.8 W 10.7 0.0 0.3
09:52 15.4 15.3 99 1020.9 9.2 S 9.8 0.0 0.3
09:53 15.4 15.3 99 1020.9 9.2 S 9.8 0.0 0.3
09:54 15.4 15.3 99 1021.1 7.6 W 9.8 0.0 0.3
09:55 15.4 15.3 99 1020.9 7.6 S 9.8 0.0 0.3
09:56 15.4 15.3 99 1021.0 9.2 S 9.8 0.0 0.3
09:57 15.4 15.3 99 1021.1 7.6 S 9.8 0.0 0.3
09:58 15.4 15.3 99 1021.1 9.8 W 9.8 0.0 0.3
09:59 15.4 15.3 99 1021.2 8.3 S 9.8 0.0 0.3
10:00 15.4 15.3 99 1021.1 9.8 W 13.6 0.0 0.3
10:02 15.4 15.3 99 1021.1 9.8 S 13.6 0.0 0.3
10:03 15.4 15.3 99 1021.4 11.4 SSW 13.6 0.0 0.3
10:04 15.4 15.3 99 1021.1 9.2 W 13.6 0.0 0.3
10:05 15.4 15.3 99 1021.1 11.4 NW 13.6 0.0 0.3
10:06 15.4 15.3 99 1021.2 11.4 S 13.6 0.0 0.3
10:07 15.5 15.4 99 1021.1 10.7 S 13.6 0.0 0.3
10:08 15.5 15.4 99 1021.2 9.8 N 13.6 0.0 0.3
10:09 15.5 15.4 99 1021.2 10.7 SW 13.6 0.0 0.3
10:10 15.5 15.4 99 1021.3 10.7 S 13.6 0.0 0.3
10:11 15.5 15.4 99 1021.3 11.4 S 11.4 0.0 0.3
10:12 15.5 15.4 99 1021.3 9.8 WSW 11.4 0.0 0.3
10:13 15.5 15.4 99 1021.0 9.2 W 11.4 0.0 0.3
10:14 15.5 15.4 99 1021.0 10.7 SW 11.4 0.0 0.3
10:16 15.5 15.4 99 1021.2 8.3 WSW 11.4 0.0 0.3
10:17 15.6 15.5 99 1021.2 8.3 W 11.4 0.0 0.3
10:18 15.6 15.5 99 1021.0 9.8 S 11.4 0.0 0.3
10:19 15.6 15.5 99 1021.0 9.8 SW 11.4 0.0 0.3
10:20 15.6 15.5 99 1021.2 6.9 S 11.4 0.0 0.3
10:21 15.6 15.5 99 1021.2 10.7 S 10.7 0.0 0.3
10:22 15.6 15.5 99 1021.2 10.7 S 10.7 0.0 0.3
10:23 15.6 15.5 99 1021.2 11.4 S 11.4 0.0 0.3
10:24 15.6 15.5 99 1021.2 11.4 W 11.4 0.0 0.3
10:25 15.5 15.4 99 1021.0 8.3 W 11.4 0.0 0.3
10:26 15.5 15.4 99 1020.9 9.2 S 11.4 0.0 0.3
10:27 15.5 15.4 99 1021.0 11.4 S 11.4 0.0 0.3
10:28 15.5 15.4 99 1021.2 8.3 W 11.4 0.0 0.3
10:29 15.5 15.4 99 1021.2 8.3 W 11.4 0.0 0.3
10:31 15.5 15.4 99 1021.2 8.3 W 11.4 0.0 0.3
10:32 15.5 15.4 99 1021.0 9.2 W 11.4 0.0 0.3
10:33 15.5 15.4 99 1021.1 8.3 W 11.4 0.0 0.3
10:34 15.5 15.4 99 1021.3 7.6 W 11.4 0.0 0.3
10:35 15.5 15.4 99 1021.2 7.6 NW 11.4 0.0 0.3
10:36 15.6 15.5 99 1021.3 7.6 SE 11.4 0.0 0.3
10:37 15.6 15.5 99 1021.1 9.2 W 11.4 0.0 0.3
10:38 15.6 15.5 99 1021.1 8.3 W 9.8 0.0 0.3
10:39 15.7 15.6 99 1021.0 10.7 S 10.7 0.0 0.3
10:40 15.7 15.6 99 1021.2 9.2 SW 10.7 0.0 0.3
10:41 15.7 15.6 99 1021.0 10.7 S 10.7 0.0 0.3
10:42 15.7 15.6 99 1021.3 8.3 SW 10.7 0.0 0.3
10:43 15.7 15.6 99 1021.3 10.7 S 10.7 0.0 0.3
10:44 15.8 15.7 99 1021.1 9.8 SW 10.7 0.0 0.3
10:46 15.8 15.7 99 1021.2 9.8 W 10.7 0.0 0.3
10:47 15.8 15.7 99 1021.2 11.4 W 11.4 0.0 0.3
10:48 15.8 15.7 99 1021.3 12.1 W 12.1 0.0 0.3
10:49 15.8 15.7 99 1021.2 12.1 SW 12.1 0.0 0.3
10:50 15.8 15.7 99 1021.4 9.8 SW 12.1 0.0 0.3
10:51 15.8 15.7 99 1021.1 9.8 SW 12.1 0.0 0.3
10:52 15.8 15.7 99 1020.9 8.3 W 12.1 0.0 0.3
10:53 15.8 15.7 99 1021.3 9.2 SW 12.1 0.0 0.3
10:54 15.8 15.7 99 1021.1 12.1 S 12.1 0.0 0.3
10:55 15.8 15.7 99 1020.9 10.7 W 12.1 0.0 0.3
10:56 15.9 15.8 99 1020.9 8.3 W 12.1 0.0 0.3
10:57 15.9 15.8 99 1021.0 7.6 SE 12.1 0.0 0.3
10:58 16.0 16.0 100 1020.9 6.9 SW 12.1 0.0 0.3
11:00 16.0 16.0 100 1020.9 6.9 SW 12.1 0.0 0.3
11:01 16.0 16.0 100 1021.1 6.9 SW 12.1 0.0 0.3
11:02 16.0 16.0 100 1021.0 6.9 SW 12.1 0.0 0.3
11:03 16.0 16.0 100 1021.0 6.9 SW 12.1 0.0 0.3
11:04 16.0 16.0 100 1021.1 6.9 SW 10.7 0.0 0.3
11:05 16.0 16.0 100 1021.1 6.9 SW 10.7 0.0 0.3
11:06 16.0 16.0 100 1020.9 6.9 SW 8.3 0.0 0.3
11:07 16.2 16.2 100 1020.9 8.3 S 9.8 0.0 0.3
11:08 16.2 16.2 100 1021.1 8.3 SW 9.8 0.0 0.3
11:09 16.2 16.2 100 1021.1 12.1 SW 12.1 0.0 0.3
11:10 16.2 16.2 100 1021.1 10.7 SW 12.1 0.0 0.3
11:11 16.3 16.3 100 1020.9 9.8 SW 12.1 0.0 0.3
11:12 16.3 16.3 100 1021.0 9.8 S 12.1 0.0 0.3
11:13 16.3 16.3 100 1021.0 9.8 S 12.1 0.0 0.3
11:14 16.3 16.3 100 1020.9 9.2 S 12.1 0.0 0.3
11:15 16.2 16.2 100 1020.9 10.7 SW 12.1 0.0 0.3
11:16 16.3 16.3 100 1021.1 8.3 S 12.1 0.0 0.3
11:17 16.3 16.3 100 1021.0 9.8 S 12.1 0.0 0.3
11:19 16.2 16.2 100 1021.2 11.4 S 11.4 0.0 0.3
11:20 16.2 16.2 100 1021.0 10.7 W 12.1 0.0 0.3
11:21 16.1 16.1 100 1021.1 8.3 SW 12.1 0.0 0.3
11:22 16.1 16.1 100 1021.2 9.2 SW 12.1 0.0 0.3
11:23 16.1 16.1 100 1020.9 9.2 SW 12.1 0.0 0.3
11:24 16.1 16.1 100 1021.0 9.8 SW 12.1 0.0 0.3
11:25 16.1 16.1 100 1021.1 12.1 S 12.1 0.0 0.3
11:26 16.0 16.0 100 1021.1 10.7 SW 12.1 0.0 0.3
11:27 16.0 16.0 100 1021.1 12.1 SSW 12.1 0.0 0.3
11:28 16.0 16.0 100 1021.1 10.7 SW 12.1 0.0 0.3
11:29 15.9 15.9 100 1021.0 10.7 S 12.1 0.0 0.3
11:30 15.9 15.9 100 1021.0 10.7 W 12.1 0.0 0.3
11:31 15.9 15.9 100 1021.3 15.9 SW 15.9 0.0 0.3
11:33 15.8 15.7 99 1021.0 13.6 SW 15.9 0.0 0.3
11:34 15.8 15.7 99 1021.2 9.8 SW 15.9 0.0 0.3
11:35 15.8 15.7 99 1020.9 9.8 SW 15.9 0.0 0.3
11:36 15.8 15.7 99 1021.1 9.2 SW 15.9 0.0 0.3
11:37 15.8 15.7 99 1021.0 11.4 S 15.9 0.0 0.3
11:38 15.8 15.7 99 1021.0 11.4 S 15.9 0.0 0.3
11:39 15.8 15.7 99 1021.0 9.8 WSW 15.9 0.0 0.3
11:40 15.8 15.7 99 1021.1 9.8 W 15.9 0.0 0.3
11:41 15.8 15.7 99 1021.1 8.3 SW 15.9 0.0 0.3
11:42 15.9 15.8 99 1021.0 9.2 S 13.6 0.0 0.3
11:43 15.9 15.9 100 1021.0 10.7 SW 13.6 0.0 0.3
11:44 15.9 15.9 100 1021.2 9.2 SW 13.0 0.0 0.3
11:45 15.9 15.9 100 1021.1 12.1 SSW 13.0 0.0 0.3
11:47 15.9 15.9 100 1021.0 9.8 SW 13.0 0.0 0.3
11:48 16.0 16.0 100 1021.0 9.2 S 13.0 0.0 0.3
11:49 16.0 16.0 100 1020.8 9.2 S 12.1 0.0 0.3
11:50 16.0 16.0 100 1021.1 10.7 S 12.1 0.0 0.3
11:51 15.9 15.9 100 1020.8 10.7 W 12.1 0.0 0.3
11:52 15.9 15.9 100 1021.1 9.8 S 12.1 0.0 0.3
11:53 15.9 15.9 100 1020.9 7.6 S 12.1 0.0 0.3
11:54 15.9 15.9 100 1021.1 7.6 SW 12.1 0.0 0.3
11:55 16.0 16.0 100 1021.1 8.3 W 12.1 0.0 0.3
11:56 16.0 16.0 100 1021.0 7.6 SW 10.7 0.0 0.3
11:57 16.0 16.0 100 1021.0 8.3 SW 10.7 0.0 0.3
11:58 16.0 16.0 100 1021.1 8.3 SW 10.7 0.0 0.3
11:59 16.1 16.1 100 1021.2 9.2 SW 10.7 0.0 0.3
12:01 16.1 16.1 100 1020.8 13.6 SW 13.6 0.0 0.3
12:02 16.1 16.1 100 1021.0 13.6 SW 13.6 0.0 0.3
12:03 16.1 16.1 100 1021.0 7.6 SW 13.6 0.0 0.3
12:04 16.2 16.2 100 1021.0 7.6 SW 13.6 0.0 0.3
12:05 16.2 16.2 100 1020.9 9.2 SW 13.6 0.0 0.3
12:06 16.2 16.2 100 1020.9 9.2 SW 13.6 0.0 0.3
12:07 16.3 16.3 100 1021.1 9.2 WNW 13.6 0.0 0.3
12:08 16.3 16.3 100 1021.0 8.3 SW 13.6 0.0 0.3
12:09 16.3 16.3 100 1020.8 10.7 S 13.6 0.0 0.3
12:10 16.3 16.3 100 1020.9 9.2 S 13.6 0.0 0.3
12:11 16.4 16.4 100 1020.8 9.2 W 13.6 0.0 0.3
12:12 16.4 16.4 100 1020.8 9.2 SW 13.6 0.0 0.3
12:13 16.4 16.4 100 1020.7 6.9 W 11.4 0.0 0.3
12:16 16.4 16.4 100 1020.9 9.8 SW 15.2 0.0 0.3
12:17 16.4 16.4 100 1020.9 9.8 S 15.2 0.0 0.3
12:18 16.4 16.4 100 1020.9 8.3 SW 15.2 0.0 0.3
12:19 16.4 16.4 100 1020.9 8.3 SW 15.2 0.0 0.3
12:20 16.4 16.4 100 1020.8 10.7 SSW 15.2 0.0 0.3
12:21 16.4 16.4 100 1020.9 8.3 SW 15.2 0.0 0.3
12:22 16.4 16.4 100 1021.1 8.3 W 15.2 0.0 0.3
12:23 16.4 16.4 100 1020.8 10.7 SE 15.2 0.0 0.3
12:24 16.4 16.4 100 1020.8 10.7 SW 15.2 0.0 0.3
12:25 16.4 16.4 100 1021.0 9.2 SW 15.2 0.0 0.3
12:26 16.4 16.4 100 1021.1 9.2 W 13.0 0.0 0.3
12:27 16.4 16.4 100 1020.8 7.6 W 10.7 0.0 0.3
12:29 16.4 16.4 100 1020.8 10.7 SW 11.4 0.0 0.3
12:30 16.4 16.4 100 1020.9 10.7 W 11.4 0.0 0.3
12:31 16.4 16.4 100 1021.0 9.8 SW 11.4 0.0 0.3
12:32 16.4 16.4 100 1020.9 12.1 SW 12.1 0.0 0.3
12:33 16.3 16.3 100 1021.0 10.7 SW 12.1 0.0 0.3
12:34 16.3 16.3 100 1021.0 10.7 SW 12.1 0.0 0.3
12:35 16.3 16.3 100 1021.1 9.8 SW 12.1 0.0 0.3
12:36 16.3 16.3 100 1021.0 10.7 SW 12.1 0.0 0.3
12:37 16.3 16.3 100 1021.1 10.7 SW 12.1 0.0 0.3
12:38 16.2 16.2 100 1021.1 10.7 SW 12.1 0.0 0.3
12:39 16.2 16.2 100 1021.1 11.4 S 12.1 0.0 0.3
12:40 16.1 16.1 100 1021.0 11.4 SW 12.1 0.0 0.3
12:41 16.1 16.1 100 1020.8 11.4 SW 12.1 0.0 0.3
12:42 16.1 16.1 100 1021.0 8.3 SW 12.1 0.0 0.3
12:44 16.2 16.2 100 1020.9 6.0 W 11.4 0.0 0.3
12:45 16.2 16.2 100 1020.9 6.9 W 11.4 0.0 0.3
12:46 16.2 16.2 100 1021.0 7.6 S 11.4 0.0 0.3
12:47 16.3 16.3 100 1021.0 9.2 SW 11.4 0.0 0.3
12:48 16.3 16.3 100 1021.1 7.6 SW 11.4 0.0 0.3
12:49 16.3 16.3 100 1021.1 7.6 SW 11.4 0.0 0.3
12:50 16.3 16.3 100 1021.1 6.9 SW 11.4 0.0 0.3
12:51 16.4 16.4 100 1021.1 7.6 SW 11.4 0.0 0.3
12:52 16.4 16.4 100 1021.2 7.6 SW 9.2 0.0 0.3
12:53 16.4 16.4 100 1020.8 10.7 SW 10.7 0.0 0.3
12:54 16.4 16.4 100 1021.0 10.7 SW 10.7 0.0 0.3
12:55 16.4 16.4 100 1020.9 9.8 SW 10.7 0.0 0.3
12:56 16.4 16.4 100 1021.1 8.3 W 10.7 0.0 0.3
12:58 16.5 16.5 100 1021.2 8.3 W 10.7 0.0 0.3
12:59 16.5 16.5 100 1020.9 9.8 W 10.7 0.0 0.3
13:00 16.5 16.5 100 1021.1 8.3 SW 10.7 0.0 0.3
13:01 16.5 16.5 100 1020.9 8.3 SW 10.7 0.0 0.3
13:02 16.5 16.5 100 1020.9 8.3 SW 10.7 0.0 0.3
13:03 16.5 16.5 100 1020.9 8.3 SW 10.7 0.0 0.3
13:04 16.5 16.5 100 1021.1 8.3 SW 9.8 0.0 0.3
13:05 16.5 16.5 100 1020.8 8.3 SW 9.8 0.0 0.3
13:06 16.5 16.5 100 1021.0 8.3 SW 9.8 0.0 0.3
13:07 16.6 16.6 100 1020.9 12.1 S 12.1 0.0 0.3
13:08 16.6 16.6 100 1020.9 8.3 W 12.1 0.0 0.3
13:09 16.7 16.7 100 1020.9 10.7 SW 12.1 0.0 0.3
13:10 16.8 16.8 100 1021.0 9.2 SW 12.1 0.0 0.3
13:11 16.9 16.9 100 1021.0 9.8 SW 12.1 0.0 0.3
13:12 16.9 16.9 100 1020.9 9.8 SW 12.1 0.0 0.3
13:13 17.0 17.0 100 1021.1 12.1 S 12.1 0.0 0.3
13:15 17.0 17.0 100 1021.0 15.2 SW 15.2 0.0 0.3
13:16 16.9 16.9 100 1020.8 13.0 S 15.2 0.0 0.3
13:18 16.8 16.8 100 1021.0 13.6 S 15.2 0.0 0.3
13:19 16.8 16.8 100 1020.9 11.4 SW 15.2 0.0 0.3
13:20 16.8 16.8 100 1021.1 13.6 S 15.2 0.0 0.3
13:21 16.8 16.8 100 1020.9 15.2 SW 15.2 0.0 0.3
13:22 16.8 16.8 100 1020.9 15.2 SW 15.2 0.0 0.3
13:23 16.9 16.9 100 1021.0 9.2 W 15.2 0.0 0.3
13:24 16.9 16.9 100 1021.0 14.5 S 15.2 0.0 0.3
13:25 16.9 16.9 100 1021.0 13.6 SW 15.2 0.0 0.3
13:26 16.9 16.9 100 1021.1 13.6 W 15.2 0.0 0.3
13:27 16.9 16.9 100 1020.9 9.2 SW 15.2 0.0 0.3
13:28 16.9 16.9 100 1021.0 14.5 SW 15.2 0.0 0.3
13:29 16.8 16.8 100 1021.0 10.7 S 15.2 0.0 0.3
13:30 16.8 16.8 100 1020.9 9.2 SW 15.2 0.0 0.3
13:32 17.0 17.0 100 1020.9 11.4 S 15.2 0.0 0.3
13:33 17.1 17.1 100 1021.0 12.1 SW 14.5 0.0 0.3
13:34 17.1 17.1 100 1020.8 9.2 SW 14.5 0.0 0.3
13:35 17.1 17.1 100 1021.0 12.1 S 14.5 0.0 0.3
13:36 17.2 17.2 100 1020.9 12.1 S 14.5 0.0 0.3
13:37 17.2 17.2 100 1020.9 12.1 S 14.5 0.0 0.3
13:38 17.2 17.2 100 1021.0 11.4 SW 14.5 0.0 0.3
13:39 17.2 17.2 100 1020.8 10.7 SW 12.1 0.0 0.3
13:40 17.2 17.2 100 1020.8 10.7 SW 12.1 0.0 0.3
13:41 17.2 17.2 100 1021.0 10.7 SW 12.1 0.0 0.3
13:42 17.2 17.2 100 1020.7 10.7 SW 12.1 0.0 0.3
13:43 17.1 17.1 100 1021.1 14.5 S 14.5 0.0 0.3
13:44 17.1 17.1 100 1020.8 10.7 SW 14.5 0.0 0.3
13:45 17.1 17.1 100 1021.1 9.8 W 14.5 0.0 0.3
13:47 17.1 17.1 100 1021.2 10.7 SW 14.5 0.0 0.3
13:48 17.1 17.1 100 1020.9 9.2 W 14.5 0.0 0.3
13:49 17.1 17.1 100 1020.9 8.3 SW 14.5 0.0 0.3
13:50 17.1 17.1 100 1020.9 7.6 W 14.5 0.0 0.3
13:51 17.1 17.1 100 1021.1 8.3 W 14.5 0.0 0.3
13:52 17.1 17.1 100 1020.9 12.1 SW 14.5 0.0 0.3
13:53 17.1 17.1 100 1021.0 12.1 S 14.5 0.0 0.3
13:54 17.1 17.1 100 1021.0 8.3 S 12.1 0.0 0.3
13:55 17.1 17.1 100 1021.0 12.1 W 12.1 0.0 0.3
13:56 17.0 17.0 100 1021.1 8.3 SW 12.1 0.0 0.3
13:57 17.0 17.0 100 1020.9 15.2 SW 15.2 0.0 0.3
13:58 17.0 17.0 100 1021.0 15.2 SW 15.2 0.0 0.3
13:59 17.0 17.0 100 1021.3 8.3 W 15.2 0.0 0.3
14:01 16.9 16.9 100 1021.1 8.3 SW 15.2 0.0 0.3
14:02 16.9 16.9 100 1021.5 11.4 SSW 15.2 0.0 0.3
14:03 16.9 16.9 100 1021.2 11.4 SSW 15.2 0.0 0.3
14:04 16.8 16.8 100 1021.3 13.0 S 15.2 0.0 0.3
14:05 16.8 16.8 100 1021.1 12.1 SW 15.2 0.0 0.3
14:06 16.8 16.8 100 1021.1 12.1 SW 15.2 0.0 0.3
14:07 16.7 16.7 100 1021.1 12.1 SW 15.2 0.0 0.3
14:08 16.7 16.7 100 1021.2 14.5 W 14.5 0.0 0.3
14:09 16.6 16.6 100 1021.3 12.1 SW 14.5 0.0 0.3
14:10 16.6 16.6 100 1021.4 9.2 SW 14.5 0.0 0.3
14:11 16.6 16.6 100 1021.1 9.8 S 14.5 0.0 0.3
14:12 16.6 16.6 100 1021.3 10.7 SW 14.5 0.0 0.3
14:13 16.6 16.6 100 1021.2 13.0 W 14.5 0.0 0.3
14:15 16.6 16.6 100 1021.1 10.7 W 14.5 0.0 0.3
14:16 16.5 16.5 100 1021.3 12.1 SW 14.5 0.0 0.3
14:17 16.5 16.5 100 1021.1 8.3 SW 14.5 0.0 0.3
14:18 16.5 16.5 100 1021.3 9.8 W 13.0 0.0 0.3
14:19 16.5 16.5 100 1021.2 9.8 SW 13.0 0.0 0.3
14:20 16.5 16.5 100 1021.0 9.8 SW 13.0 0.0 0.3
14:21 16.5 16.5 100 1021.2 10.7 SW 13.0 0.0 0.3
14:22 16.5 16.5 100 1021.3 10.7 SW 13.0 0.0 0.3
14:23 16.5 16.5 100 1021.3 9.2 W 13.0 0.0 0.3
14:24 16.5 16.5 100 1021.4 9.8 W 12.1 0.0 0.3
14:25 16.5 16.5 100 1021.3 13.0 S 13.0 0.0 0.3
14:26 16.5 16.5 100 1021.3 11.4 W 13.0 0.0 0.3
14:27 16.6 16.6 100 1021.2 11.4 W 13.0 0.0 0.3
14:29 16.7 16.7 100 1021.3 11.4 W 13.0 0.0 0.3
14:30 16.8 16.8 100 1021.3 12.1 SW 13.0 0.0 0.3
14:31 16.8 16.8 100 1021.2 12.1 SW 13.0 0.0 0.3
14:32 16.9 16.9 100 1021.3 9.2 W 13.0 0.0 0.3
14:33 16.9 16.9 100 1021.4 12.1 S 13.0 0.0 0.3
14:34 16.9 16.9 100 1021.3 11.4 W 13.0 0.0 0.3
14:35 16.9 16.9 100 1021.3 11.4 W 13.0 0.0 0.3
14:36 16.9 16.9 100 1021.4 9.8 W 12.1 0.0 0.3
14:37 16.9 16.9 100 1021.2 9.8 S 12.1 0.0 0.3
14:38 17.0 17.0 100 1021.3 15.2 S 15.2 0.0 0.3
14:39 17.0 17.0 100 1021.4 11.4 SW 15.2 0.0 0.3
14:40 17.0 17.0 100 1021.4 13.0 SW 15.2 0.0 0.3
14:41 17.0 17.0 100 1021.2 9.8 SW 15.2 0.0 0.3
14:42 17.1 17.1 100 1021.4 10.7 SSW 15.2 0.0 0.3
14:43 17.1 17.1 100 1021.4 8.3 SW 15.2 0.0 0.3
14:45 17.1 17.1 100 1021.4 9.2 SW 15.2 0.0 0.3
14:46 17.1 17.1 100 1021.2 13.0 S 15.2 0.0 0.3
14:47 17.1 17.1 100 1021.6 10.7 SW 15.2 0.0 0.3
14:48 17.1 17.1 100 1021.2 13.0 SW 15.2 0.0 0.3
14:49 17.1 17.1 100 1021.3 9.2 SW 13.0 0.0 0.3
14:50 17.1 17.1 100 1021.3 9.2 SW 13.0 0.0 0.3
14:51 17.1 17.1 100 1021.4 11.4 SW 13.0 0.0 0.3
14:52 17.1 17.1 100 1021.5 8.3 S 13.0 0.0 0.3
14:53 17.0 17.0 100 1021.3 13.0 SW 13.0 0.0 0.3
14:54 17.0 17.0 100 1021.3 8.3 W 13.0 0.0 0.3
14:55 17.0 17.0 100 1021.6 9.8 SW 13.0 0.0 0.3
14:56 17.0 17.0 100 1021.3 9.8 SW 13.0 0.0 0.3
14:57 17.0 17.0 100 1021.5 9.2 S 13.0 0.0 0.3
14:58 16.9 16.9 100 1021.3 13.6 S 13.6 0.0 0.3
15:00 16.9 16.9 100 1021.7 9.2 SW 13.6 0.0 0.3
15:01 16.9 16.9 100 1021.4 9.2 SW 13.6 0.0 0.3
15:02 16.9 16.9 100 1021.5 9.2 SW 13.6 0.0 0.3
15:03 16.9 16.9 100 1021.2 9.2 SW 13.6 0.0 0.3
15:04 16.9 16.9 100 1021.5 9.2 SW 13.6 0.0 0.3
15:05 16.9 16.9 100 1021.5 9.2 SW 13.6 0.0 0.3
15:06 16.9 16.9 100 1021.2 9.2 SW 13.6 0.0 0.3
15:07 16.8 16.8 100 1021.6 9.2 SW 13.6 0.0 0.3
15:08 16.8 16.8 100 1021.4 10.7 W 13.6 0.0 0.3
15:09 16.7 16.7 100 1021.3 10.7 SW 13.6 0.0 0.3
15:10 16.7 16.7 100 1021.7 10.7 S 10.7 0.0 0.3
15:11 16.7 16.7 100 1021.4 10.7 WSW 10.7 0.0 0.3
15:12 16.7 16.7 100 1021.6 11.4 SW 11.4 0.0 0.3
15:13 16.7 16.7 100 1021.5 10.7 SW 11.4 0.0 0.3
15:15 16.6 16.6 100 1021.2 10.7 SW 11.4 0.0 0.3
15:16 16.6 16.6 100 1021.4 9.2 SW 11.4 0.0 0.3
15:17 16.6 16.6 100 1021.3 11.4 W 11.4 0.0 0.3
15:18 16.7 16.7 100 1021.5 10.7 S 11.4 0.0 0.3
15:21 16.9 16.9 100 1021.7 9.2 W 11.4 0.0 0.3
15:22 16.9 16.9 100 1021.3 8.3 SW 11.4 0.0 0.3
15:23 16.9 16.9 100 1021.4 8.3 S 11.4 0.0 0.3
15:24 17.0 17.0 100 1021.5 11.4 W 11.4 0.0 0.3
15:25 17.0 17.0 100 1021.5 11.4 W 11.4 0.0 0.3
15:26 17.0 17.0 100 1021.4 9.2 S 11.4 0.0 0.3
15:27 17.0 17.0 100 1021.2 9.2 W 11.4 0.0 0.3
15:28 17.0 17.0 100 1021.4 8.3 SW 11.4 0.0 0.3
15:29 17.0 17.0 100 1021.6 7.6 SW 11.4 0.0 0.3
15:30 17.1 17.1 100 1021.5 5.4 SW 11.4 0.0 0.3
15:31 17.1 17.1 100 1021.3 9.8 SW 11.4 0.0 0.3
15:32 17.1 17.1 100 1021.3 10.7 S 11.4 0.0 0.3
15:33 17.1 17.1 100 1021.6 9.8 SW 11.4 0.0 0.3
15:35 17.1 17.1 100 1021.3 9.2 W 10.7 0.0 0.3
15:36 17.1 17.1 100 1021.7 11.4 W 11.4 0.0 0.3
15:37 17.1 17.1 100 1021.8 11.4 SW 11.4 0.0 0.3
15:38 17.1 17.1 100 1021.5 6.0 SW 11.4 0.0 0.3
15:39 17.1 17.1 100 1021.5 7.6 SW 11.4 0.0 0.3
15:40 17.1 17.1 100 1021.5 6.0 S 11.4 0.0 0.3
15:41 17.1 17.1 100 1021.5 6.0 S 11.4 0.0 0.3
15:42 17.1 17.1 100 1021.5 10.7 SW 11.4 0.0 0.3
15:43 17.1 17.1 100 1021.4 9.8 W 11.4 0.0 0.3
15:44 17.1 17.1 100 1021.6 9.8 S 11.4 0.0 0.3
15:45 17.1 17.1 100 1021.5 8.3 W 11.4 0.0 0.3
15:46 17.1 17.1 100 1021.5 8.3 SW 11.4 0.0 0.3
15:47 17.1 17.1 100 1021.5 6.9 WSW 11.4 0.0 0.3
15:48 17.1 17.1 100 1021.6 7.6 W 10.7 0.0 0.3
15:50 17.0 17.0 100 1021.7 10.7 W 11.4 0.0 0.3
15:51 17.0 17.0 100 1021.6 10.7 W 11.4 0.0 0.3
15:52 17.0 17.0 100 1021.7 10.7 SW 11.4 0.0 0.3
15:53 17.0 17.0 100 1021.6 10.7 SW 11.4 0.0 0.3
15:54 17.0 17.0 100 1021.4 9.8 SW 11.4 0.0 0.3
15:55 17.0 17.0 100 1021.4 9.8 SW 11.4 0.0 0.3
15:56 17.0 17.0 100 1021.7 7.6 SW 11.4 0.0 0.3
15:57 17.0 17.0 100 1021.7 12.1 SW 12.1 0.0 0.3
15:58 17.0 17.0 100 1021.5 9.8 SW 12.1 0.0 0.3
15:59 17.0 17.0 100 1021.7 9.2 WSW 12.1 0.0 0.3
16:00 17.0 17.0 100 1021.6 9.2 W 12.1 0.0 0.3
16:01 17.0 17.0 100 1021.7 9.8 W 12.1 0.0 0.3
16:02 17.0 17.0 100 1021.7 9.8 W 12.1 0.0 0.3
16:04 16.9 16.8 99 1021.6 7.6 NW 12.1 0.0 0.3
16:05 16.9 16.8 99 1021.6 7.6 W 12.1 0.0 0.3
16:06 16.9 16.8 99 1021.5 8.3 SW 12.1 0.0 0.3
16:07 16.9 16.8 99 1021.6 6.9 SW 9.8 0.0 0.3
16:08 17.0 16.9 99 1021.6 6.0 W 9.8 0.0 0.3
16:09 17.0 16.9 99 1021.6 6.0 W 9.8 0.0 0.3
16:10 17.0 16.9 99 1021.7 8.3 W 9.8 0.0 0.3
16:11 17.0 16.9 99 1021.8 9.8 W 9.8 0.0 0.3
16:12 17.0 16.9 99 1021.6 6.9 SW 9.8 0.0 0.3
16:13 17.0 16.9 99 1021.5 7.6 SW 9.8 0.0 0.3
16:14 17.0 16.9 99 1021.6 6.0 SW 9.8 0.0 0.3
16:15 17.0 16.9 99 1021.7 6.0 SW 9.8 0.0 0.3
16:16 17.0 16.9 99 1021.7 7.6 SW 9.8 0.0 0.3
16:17 17.0 16.9 99 1021.7 5.4 SW 9.8 0.0 0.3
16:19 17.0 16.9 99 1021.7 7.6 W 9.8 0.0 0.3
16:20 17.0 16.9 99 1021.5 7.6 W 9.8 0.0 0.3
16:21 17.0 16.9 99 1021.7 7.6 W 9.8 0.0 0.3
16:22 17.0 16.9 99 1021.5 7.6 W 7.6 0.0 0.3
16:23 17.0 16.9 99 1021.5 8.3 W 8.3 0.0 0.3
16:24 17.0 16.9 99 1021.6 6.9 W 8.3 0.0 0.3
16:25 17.0 16.9 99 1021.6 6.9 W 8.3 0.0 0.3
16:26 17.0 16.9 99 1021.5 8.3 SW 8.3 0.0 0.3
16:27 17.0 16.9 99 1021.6 8.3 SW 12.1 0.0 0.3
16:28 17.0 16.7 98 1021.6 10.7 SW 12.1 0.0 0.3
16:29 17.0 16.7 98 1021.7 8.3 SW 12.1 0.0 0.3
16:30 17.0 16.7 98 1021.6 7.6 SW 12.1 0.0 0.3
16:31 16.9 16.6 98 1021.6 9.8 WSW 12.1 0.0 0.3
16:32 16.9 16.6 98 1021.6 9.8 WSW 12.1 0.0 0.3
16:33 16.9 16.6 98 1021.5 8.3 SW 12.1 0.0 0.3
16:34 16.8 16.5 98 1021.6 6.0 W 12.1 0.0 0.3
16:36 16.8 16.3 97 1021.7 9.2 SW 12.1 0.0 0.3
16:37 16.8 16.3 97 1021.9 9.2 SW 10.7 0.0 0.3
16:38 16.8 16.3 97 1021.5 7.6 SW 9.8 0.0 0.3
16:39 16.8 16.3 97 1021.5 6.0 S 9.8 0.0 0.3
16:40 16.8 16.3 97 1021.5 9.2 SW 9.8 0.0 0.3
16:41 16.8 16.3 97 1021.4 8.3 W 9.8 0.0 0.3
16:42 16.8 16.3 97 1021.4 8.3 W 9.8 0.0 0.3
16:43 16.7 16.1 96 1021.5 9.2 SW 11.4 0.0 0.3
16:44 16.7 16.1 96 1021.5 7.6 SW 11.4 0.0 0.3
16:45 16.7 16.1 96 1021.6 6.0 SW 11.4 0.0 0.3
16:46 16.7 16.1 96 1021.4 8.3 W 11.4 0.0 0.3
16:47 16.7 16.1 96 1021.6 6.9 SW 11.4 0.0 0.3
16:48 16.7 16.1 96 1021.5 7.6 WSW 11.4 0.0 0.3
16:49 16.7 16.1 96 1021.7 8.3 W 11.4 0.0 0.3
16:50 16.7 16.1 96 1021.5 7.6 SW 11.4 0.0 0.3
16:52 16.8 16.0 95 1021.5 7.6 SW 11.4 0.0 0.3
16:53 16.8 16.0 95 1021.4 7.6 NW 8.3 0.0 0.3
16:54 16.9 16.1 95 1021.5 7.6 W 8.3 0.0 0.3
16:55 16.9 16.1 95 1021.7 7.6 W 8.3 0.0 0.3
16:56 16.9 16.1 95 1021.4 6.9 SW 8.3 0.0 0.3
16:57 16.9 16.1 95 1021.4 6.9 SW 8.3 0.0 0.3
16:58 17.0 16.2 95 1021.5 6.0 W 8.3 0.0 0.3
16:59 17.0 16.2 95 1021.5 9.2 W 9.2 0.0 0.3
17:00 17.0 16.2 95 1021.6 8.3 W 9.2 0.0 0.3
17:01 17.0 16.2 95 1021.5 8.3 W 9.2 0.0 0.3
17:02 17.0 16.2 95 1021.6 8.3 W 9.2 0.0 0.3
17:03 17.0 16.2 95 1021.5 8.3 W 9.2 0.0 0.3
17:04 17.0 16.2 95 1021.6 8.3 W 9.2 0.0 0.3
17:05 17.0 16.2 95 1021.6 8.3 W 9.2 0.0 0.3
17:07 17.0 16.2 95 1021.7 8.3 W 9.2 0.0 0.3
17:08 16.9 15.8 93 1021.7 6.0 SW 9.2 0.0 0.3
17:09 16.9 15.8 93 1021.6 6.9 W 9.2 0.0 0.3
17:10 16.9 15.8 93 1021.7 6.9 W 8.3 0.0 0.3
17:11 16.9 15.8 93 1021.8 6.0 NW 8.3 0.0 0.3
17:12 16.9 15.8 93 1021.4 7.6 SW 8.3 0.0 0.3
17:13 16.8 15.7 93 1021.6 6.0 SW 8.3 0.0 0.3
17:14 16.8 15.7 93 1021.7 5.4 W 8.3 0.0 0.3
17:15 16.8 15.7 93 1021.4 5.4 S 8.3 0.0 0.3
17:16 16.7 15.4 92 1021.7 9.2 S 9.2 0.0 0.3
17:17 16.7 15.4 92 1021.8 9.2 SW 9.2 0.0 0.3
17:18 16.7 15.4 92 1021.7 7.6 W 9.2 0.0 0.3
17:19 16.6 15.3 92 1021.6 6.9 SW 9.2 0.0 0.3
17:20 16.6 15.3 92 1021.7 5.4 WNW 9.2 0.0 0.3
17:21 16.6 15.3 92 1021.6 7.6 SW 9.2 0.0 0.3
17:22 16.6 15.3 92 1021.7 9.2 W 9.2 0.0 0.3
17:23 16.5 15.2 92 1021.8 7.6 SW 9.2 0.0 0.3
17:24 16.5 15.2 92 1021.7 7.6 SW 9.2 0.0 0.3
17:25 16.5 15.2 92 1021.7 6.0 SW 9.2 0.0 0.3
17:26 16.5 15.2 92 1021.6 6.0 W 9.2 0.0 0.3
17:27 16.4 15.1 92 1021.7 6.0 W 9.2 0.0 0.3
17:29 16.4 15.1 92 1021.6 6.0 SW 9.2 0.0 0.3
17:30 16.4 15.1 92 1021.8 7.6 SW 9.2 0.0 0.3
17:31 16.3 15.0 92 1021.6 8.3 SW 9.2 0.0 0.3
17:32 16.3 15.0 92 1021.6 6.9 SW 8.3 0.0 0.3
17:33 16.3 15.0 92 1021.5 7.6 SW 8.3 0.0 0.3
17:34 16.3 15.0 92 1021.7 6.0 SW 8.3 0.0 0.3
17:35 16.3 15.0 92 1021.7 6.0 SW 8.3 0.0 0.3
17:36 16.2 14.9 92 1021.4 6.9 W 8.3 0.0 0.3
17:37 16.2 14.9 92 1021.5 7.6 W 8.3 0.0 0.3
17:38 16.2 14.9 92 1021.6 6.9 SW 8.3 0.0 0.3
17:39 16.2 14.9 92 1021.2 7.6 W 8.3 0.0 0.3
17:40 16.2 14.9 92 1021.8 7.6 S 8.3 0.0 0.3
17:41 16.2 14.9 92 1021.5 8.3 SW 8.3 0.0 0.3
17:42 16.2 14.9 92 1021.5 7.6 SW 8.3 0.0 0.3
17:43 16.1 14.8 92 1021.4 6.9 SW 9.8 0.0 0.3
17:44 16.1 14.8 92 1021.5 9.8 SW 9.8 0.0 0.3
17:46 16.1 14.8 92 1021.5 9.8 SW 9.8 0.0 0.3
17:47 16.0 14.7 92 1021.5 7.6 SW 9.8 0.0 0.3
17:48 16.0 14.7 92 1021.5 6.0 W 9.8 0.0 0.3
17:49 16.0 14.7 92 1021.7 6.9 SW 9.8 0.0 0.3
17:50 16.0 14.7 92 1021.7 6.0 SW 9.8 0.0 0.3
17:51 16.0 14.7 92 1021.6 6.9 W 9.8 0.0 0.3
17:52 16.0 14.7 92 1021.5 7.6 SW 9.8 0.0 0.3
17:53 15.9 14.6 92 1021.8 8.3 SW 9.8 0.0 0.3
17:54 15.9 14.6 92 1021.6 6.9 SW 9.8 0.0 0.3
17:55 15.9 14.6 92 1021.8 6.9 SW 9.8 0.0 0.3
17:56 15.9 14.6 92 1021.6 6.9 SW 9.8 0.0 0.3
17:57 15.8 14.5 92 1021.4 6.0 SW 8.3 0.0 0.3
17:58 15.8 14.5 92 1021.6 5.4 SW 8.3 0.0 0.3
17:59 15.8 14.5 92 1021.7 7.6 SW 8.3 0.0 0.3
18:01 15.8 14.5 92 1021.7 7.6 W 8.3 0.0 0.3
18:02 15.8 14.5 92 1021.7 7.6 W 8.3 0.0 0.3
18:03 15.7 14.4 92 1021.6 3.8 W 7.6 0.0 0.3
18:04 15.7 14.4 92 1021.7 5.4 SW 7.6 0.0 0.3
18:05 15.7 14.6 93 1021.5 5.4 SW 7.6 0.0 0.3
18:06 15.7 14.6 93 1021.5 5.4 SW 7.6 0.0 0.3
18:07 15.7 14.6 93 1021.5 3.8 SW 7.6 0.0 0.3
18:08 15.7 14.6 93 1021.5 6.0 SW 7.6 0.0 0.3
18:09 15.7 14.6 93 1021.7 6.9 SW 7.6 0.0 0.3
18:10 15.7 14.6 93 1021.5 6.0 S 7.6 0.0 0.3
18:11 15.7 14.6 93 1021.7 4.5 SW 7.6 0.0 0.3
18:12 15.7 14.6 93 1021.6 6.0 SW 7.6 0.0 0.3
18:13 15.7 14.6 93 1021.5 6.0 W 6.9 0.0 0.3
18:15 15.7 14.6 93 1021.8 6.0 SW 6.9 0.0 0.3
18:16 15.7 14.6 93 1021.6 6.9 WSW 6.9 0.0 0.3
18:17 15.7 14.6 93 1021.5 6.9 SW 6.9 0.0 0.3
18:18 15.7 14.6 93 1021.6 4.5 SW 6.9 0.0 0.3
18:19 15.6 14.5 93 1021.8 4.5 SW 6.9 0.0 0.3
18:20 15.6 14.5 93 1021.6 4.5 SW 6.9 0.0 0.3
18:21 15.6 14.5 93 1021.3 7.6 SW 7.6 0.0 0.3
18:22 15.6 14.5 93 1021.7 7.6 SW 7.6 0.0 0.3
18:23 15.6 14.5 93 1021.5 6.0 SW 7.6 0.0 0.3
18:24 15.6 14.5 93 1021.6 8.3 SW 8.3 0.0 0.3
18:25 15.6 14.5 93 1021.4 8.3 S 8.3 0.0 0.3
18:26 15.6 14.5 93 1021.6 8.3 SW 8.3 0.0 0.3
18:27 15.5 14.4 93 1021.7 6.0 SW 8.3 0.0 0.3
18:28 15.5 14.4 93 1021.6 6.0 SW 8.3 0.0 0.3
18:30 15.5 14.4 93 1021.6 5.4 SW 8.3 0.0 0.3
18:31 15.5 14.4 93 1021.5 5.4 SW 8.3 0.0 0.3
18:32 15.5 14.4 93 1021.6 6.9 SW 8.3 0.0 0.3
18:33 15.5 14.4 93 1021.7 5.4 SW 8.3 0.0 0.3
18:34 15.5 14.4 93 1021.5 6.9 SW 8.3 0.0 0.3
18:35 15.5 14.4 93 1021.5 6.9 SW 8.3 0.0 0.3
18:36 15.5 14.4 93 1021.7 6.0 SW 7.6 0.0 0.3
18:37 15.5 14.4 93 1021.6 5.4 W 7.6 0.0 0.3
18:38 15.5 14.4 93 1021.9 4.5 SW 7.6 0.0 0.3
18:39 15.5 14.4 93 1021.6 8.3 SW 8.3 0.0 0.3
18:40 15.5 14.4 93 1021.5 6.0 SW 8.3 0.0 0.3
18:41 15.5 14.4 93 1021.7 6.0 SW 8.3 0.0 0.3
18:42 15.4 14.3 93 1021.5 6.9 SW 8.3 0.0 0.3
18:44 15.4 14.3 93 1021.6 6.0 SW 8.3 0.0 0.3
18:45 15.4 14.4 94 1021.4 6.0 SW 8.3 0.0 0.3
18:46 15.4 14.4 94 1021.6 6.0 W 8.3 0.0 0.3
18:47 15.4 14.4 94 1021.5 6.0 SW 8.3 0.0 0.3
18:48 15.4 14.4 94 1021.4 6.0 SW 8.3 0.0 0.3
18:49 15.4 14.4 94 1021.4 6.0 SW 8.3 0.0 0.3
18:50 15.4 14.4 94 1021.4 6.0 SW 6.9 0.0 0.3
18:51 15.4 14.4 94 1021.3 6.9 S 6.9 0.0 0.3
18:52 15.4 14.4 94 1021.3 8.3 SW 8.3 0.0 0.3
18:53 15.4 14.4 94 1021.4 8.3 SSW 8.3 0.0 0.3
18:54 15.4 14.4 94 1021.2 6.0 SW 8.3 0.0 0.3
18:55 15.4 14.4 94 1021.4 5.4 SW 8.3 0.0 0.3
18:56 15.4 14.4 94 1021.5 6.9 W 8.3 0.0 0.3
18:57 15.4 14.4 94 1021.4 7.6 SW 8.3 0.0 0.3
18:59 15.4 14.4 94 1021.3 5.4 W 8.3 0.0 0.3
19:00 15.4 14.4 94 1021.4 6.0 SW 8.3 0.0 0.3
19:01 15.4 14.4 94 1021.5 6.0 SW 8.3 0.0 0.3
19:02 15.4 14.4 94 1021.5 6.0 SW 8.3 0.0 0.3
19:03 15.4 14.4 94 1021.3 6.0 SW 7.6 0.0 0.3
19:04 15.4 14.4 94 1021.5 6.0 SW 7.6 0.0 0.3
19:05 15.4 14.4 94 1021.4 6.0 SW 7.6 0.0 0.3
19:06 15.4 14.4 94 1021.5 6.0 SW 7.6 0.0 0.3
19:07 15.4 14.4 94 1021.3 6.0 SW 8.3 0.0 0.3
19:08 15.4 14.4 94 1021.7 5.4 SW 8.3 0.0 0.3
19:09 15.4 14.4 94 1021.8 6.0 W 8.3 0.0 0.3
19:10 15.4 14.4 94 1021.6 6.0 W 8.3 0.0 0.3
19:11 15.4 14.4 94 1021.5 6.9 SW 8.3 0.0 0.3
19:12 15.4 14.4 94 1021.4 7.6 SW 8.3 0.0 0.3
19:14 15.4 14.4 94 1021.5 4.5 SW 8.3 0.0 0.3
19:15 15.4 14.4 94 1021.5 5.4 W 8.3 0.0 0.3
19:17 15.4 14.4 94 1021.4 4.5 W 8.3 0.0 0.3
19:18 15.4 14.4 94 1021.4 7.6 SW 8.3 0.0 0.3
19:19 15.4 14.4 94 1021.7 5.4 S 8.3 0.0 0.3
19:20 15.4 14.4 94 1021.7 9.2 SW 9.2 0.0 0.3
19:22 15.4 14.4 94 1021.6 9.2 SW 9.2 0.0 0.3
19:23 15.3 14.3 94 1021.4 7.6 W 9.2 0.0 0.3
19:24 15.3 14.3 94 1021.6 5.4 SW 9.2 0.0 0.3
19:25 15.3 14.3 94 1021.6 9.2 W 9.2 0.0 0.3
19:26 15.3 14.3 94 1021.6 9.2 W 9.2 0.0 0.3
19:27 15.3 14.3 94 1021.6 6.9 SW 9.2 0.0 0.3
19:28 15.3 14.3 94 1021.6 6.0 S 9.2 0.0 0.3
19:29 15.3 14.3 94 1021.6 6.0 SW 9.2 0.0 0.3
19:30 15.3 14.3 94 1021.8 6.0 W 9.2 0.0 0.3
19:31 15.3 14.3 94 1021.5 9.2 WSW 9.2 0.0 0.3
19:32 15.3 14.3 94 1021.6 9.2 W 9.2 0.0 0.3
19:33 15.3 14.3 94 1021.7 9.2 SW 9.2 0.0 0.3
19:34 15.3 14.3 94 1021.6 6.0 W 9.2 0.0 0.3
19:36 15.4 14.6 95 1021.5 8.3 W 9.2 0.0 0.3
19:37 15.4 14.6 95 1021.5 7.6 W 9.2 0.0 0.3
19:38 15.4 14.6 95 1021.5 5.4 W 9.2 0.0 0.3
19:39 15.4 14.6 95 1021.8 6.9 W 9.2 0.0 0.3
19:40 15.4 14.6 95 1021.7 7.6 S 9.2 0.0 0.3
19:41 15.4 14.6 95 1021.7 7.6 S 9.2 0.0 0.3
19:42 15.4 14.6 95 1021.7 6.9 SW 9.2 0.0 0.3
19:43 15.4 14.6 95 1021.7 6.9 W 9.2 0.0 0.3
19:44 15.4 14.6 95 1021.9 5.4 SW 8.3 0.0 0.3
19:45 15.4 14.6 95 1021.7 4.5 W 8.3 0.0 0.3
19:46 15.4 14.6 95 1021.7 5.4 SW 8.3 0.0 0.3
19:47 15.4 14.6 95 1021.8 6.0 SW 8.3 0.0 0.3
19:48 15.4 14.6 95 1021.7 8.3 WSW 8.3 0.0 0.3
19:50 15.4 14.6 95 1021.7 8.3 S 8.3 0.0 0.3
19:51 15.4 14.6 95 1021.6 8.3 SW 8.3 0.0 0.3
19:52 15.3 14.5 95 1021.9 7.6 SW 8.3 0.0 0.3
19:53 15.3 14.5 95 1021.9 6.9 SW 8.3 0.0 0.3
19:54 15.3 14.5 95 1021.6 6.9 W 8.3 0.0 0.3
19:55 15.3 14.5 95 1021.6 6.9 W 8.3 0.0 0.3
19:56 15.3 14.5 95 1021.8 6.0 NW 8.3 0.0 0.3
19:57 15.3 14.5 95 1021.7 5.4 W 8.3 0.0 0.3
19:58 15.3 14.5 95 1022.1 4.5 SW 8.3 0.0 0.3
19:59 15.3 14.5 95 1021.8 7.6 WSW 8.3 0.0 0.3
20:00 15.3 14.5 95 1021.9 7.6 W 8.3 0.0 0.3
20:01 15.3 14.5 95 1021.6 5.4 W 8.3 0.0 0.3
20:02 15.3 14.5 95 1021.8 6.0 W 7.6 0.0 0.3
20:04 15.3 14.5 95 1021.8 6.9 SW 7.6 0.0 0.3
20:05 15.3 14.5 95 1021.7 5.4 W 7.6 0.0 0.3
20:06 15.2 14.4 95 1021.9 5.4 SW 7.6 0.0 0.3
20:07 15.2 14.4 95 1022.0 4.5 SW 7.6 0.0 0.3
20:08 15.2 14.4 95 1021.8 5.4 W 7.6 0.0 0.3
20:09 15.2 14.4 95 1021.8 5.4 W 7.6 0.0 0.3
20:10 15.2 14.4 95 1022.0 5.4 SW 7.6 0.0 0.3
20:11 15.2 14.4 95 1021.8 6.9 W 7.6 0.0 0.3
20:12 15.2 14.4 95 1021.7 6.0 W 7.6 0.0 0.3
20:13 15.2 14.4 95 1021.9 6.9 SW 7.6 0.0 0.3
20:14 15.2 14.4 95 1022.1 6.9 WSW 6.9 0.0 0.3
20:15 15.2 14.4 95 1021.8 6.9 W 6.9 0.0 0.3
20:16 15.2 14.4 95 1021.9 6.0 WSW 6.9 0.0 0.3
20:18 15.2 14.4 95 1022.0 6.9 SW 6.9 0.0 0.3
20:19 15.2 14.4 95 1021.7 6.9 SW 6.9 0.0 0.3
20:20 15.1 14.3 95 1021.9 6.9 SW 6.9 0.0 0.3
20:21 15.1 14.3 95 1021.9 7.6 NW 7.6 0.0 0.3
20:22 15.1 14.3 95 1021.9 6.9 SW 7.6 0.0 0.3
20:23 15.1 14.3 95 1021.8 6.0 W 7.6 0.0 0.3
20:24 15.1 14.3 95 1021.9 4.5 SW 7.6 0.0 0.3
20:25 15.1 14.3 95 1021.9 4.5 W 7.6 0.0 0.3
20:26 15.1 14.3 95 1022.0 4.5 W 7.6 0.0 0.3
20:27 15.1 14.3 95 1021.9 6.9 WSW 7.6 0.0 0.3
20:28 15.1 14.3 95 1021.7 6.9 W 7.6 0.0 0.3
20:29 15.1 14.3 95 1021.9 5.4 WNW 7.6 0.0 0.3
20:30 15.1 14.3 95 1021.7 3.8 SW 7.6 0.0 0.3
20:31 15.1 14.3 95 1021.8 5.4 W 7.6 0.0 0.3
20:33 15.1 14.3 95 1021.8 6.0 W 6.9 0.0 0.3
20:34 15.1 14.3 95 1021.9 5.4 WSW 6.9 0.0 0.3
20:35 15.1 14.3 95 1021.8 7.6 NW 7.6 0.0 0.3
20:36 15.1 14.3 95 1021.7 6.0 NW 7.6 0.0 0.3
20:37 15.1 14.3 95 1021.7 6.9 SW 7.6 0.0 0.3
20:38 15.1 14.3 95 1021.7 6.9 SW 7.6 0.0 0.3
20:39 15.1 14.3 95 1021.9 6.0 W 7.6 0.0 0.3
20:40 15.1 14.3 95 1021.7 4.5 W 7.6 0.0 0.3
20:41 15.1 14.3 95 1021.7 4.5 WSW 7.6 0.0 0.3
20:42 15.1 14.3 95 1021.7 4.5 W 7.6 0.0 0.3
20:43 15.1 14.3 95 1021.6 4.5 WNW 7.6 0.0 0.3
20:44 15.1 14.3 95 1021.7 3.8 W 7.6 0.0 0.3
20:45 15.0 14.2 95 1021.9 5.4 SW 7.6 0.0 0.3
20:46 15.0 14.2 95 1021.6 5.4 W 6.9 0.0 0.3
20:47 15.0 14.2 95 1021.8 6.9 NW 7.6 0.0 0.3
20:48 15.0 14.2 95 1021.7 4.5 W 7.6 0.0 0.3
20:50 15.0 14.2 95 1021.6 6.9 NW 7.6 0.0 0.3
20:51 15.0 14.2 95 1021.7 6.0 SW 7.6 0.0 0.3
20:52 14.9 14.1 95 1021.6 6.9 W 7.6 0.0 0.3
20:53 14.9 14.1 95 1021.8 6.9 W 7.6 0.0 0.3
20:54 14.9 14.1 95 1021.8 8.3 W 8.3 0.0 0.3
20:55 14.9 14.1 95 1021.7 8.3 SW 8.3 0.0 0.3
20:56 14.9 14.1 95 1021.6 8.3 SW 8.3 0.0 0.3
20:57 14.9 14.1 95 1021.7 8.3 SW 8.3 0.0 0.3
20:58 14.8 14.0 95 1021.6 8.3 W 8.3 0.0 0.3
20:59 14.8 14.0 95 1021.7 7.6 S 8.3 0.0 0.3
21:00 14.8 14.0 95 1021.6 7.6 W 8.3 0.0 0.3
21:01 14.8 14.0 95 1021.6 7.6 W 8.3 0.0 0.3
21:02 14.8 14.0 95 1021.7 7.6 W 8.3 0.0 0.3
21:03 14.8 14.0 95 1021.5 7.6 W 8.3 0.0 0.3
21:04 14.8 14.0 95 1021.5 7.6 W 8.3 0.0 0.3
21:05 14.8 14.0 95 1021.8 7.6 W 8.3 0.0 0.3
21:07 14.7 13.9 95 1021.5 6.9 W 8.3 0.0 0.3
21:08 14.7 13.9 95 1021.5 5.4 W 7.6 0.0 0.3
21:09 14.7 13.9 95 1021.5 6.9 SW 7.6 0.0 0.3
21:10 14.7 13.9 95 1021.6 6.9 SW 7.6 0.0 0.3
21:11 14.7 13.9 95 1021.8 4.5 WSW 7.6 0.0 0.3
21:12 14.7 13.9 95 1021.6 3.8 WSW 7.6 0.0 0.3
21:13 14.7 13.9 95 1021.6 3.8 WSW 7.6 0.0 0.3
21:14 14.7 13.9 95 1021.6 5.4 WNW 7.6 0.0 0.3
21:15 14.7 13.9 95 1021.5 5.4 NW 7.6 0.0 0.3
21:16 14.7 13.9 95 1021.5 6.0 W 6.9 0.0 0.3
21:17 14.7 13.9 95 1021.4 3.1 NW 6.9 0.0 0.3
21:18 14.7 13.9 95 1021.3 7.6 W 7.6 0.0 0.3
21:19 14.7 13.9 95 1021.6 7.6 W 7.6 0.0 0.3
21:20 14.6 13.8 95 1021.5 6.0 W 7.6 0.0 0.3
21:21 14.6 13.8 95 1021.6 4.5 W 7.6 0.0 0.3
21:22 14.6 13.8 95 1021.6 4.5 W 7.6 0.0 0.3
21:23 14.6 13.8 95 1021.6 5.4 W 7.6 0.0 0.3
21:24 14.6 13.8 95 1021.6 5.4 W 7.6 0.0 0.3
21:25 14.6 13.8 95 1021.7 4.5 W 7.6 0.0 0.3
21:26 14.6 13.8 95 1021.6 3.8 W 7.6 0.0 0.3
21:27 14.6 13.8 95 1021.6 3.8 W 7.6 0.0 0.3
21:28 14.6 13.8 95 1021.6 2.2 SW 7.6 0.0 0.3
21:29 14.6 13.8 95 1021.6 3.8 W 7.6 0.0 0.3
21:31 14.6 13.8 95 1021.5 3.1 W 5.4 0.0 0.3
21:32 14.6 13.8 95 1021.6 4.5 W 5.4 0.0 0.3
21:33 14.6 13.8 95 1021.7 5.4 NW 5.4 0.0 0.3
21:34 14.6 13.8 95 1021.7 3.8 S 5.4 0.0 0.3
21:35 14.6 13.8 95 1021.6 3.8 SW 5.4 0.0 0.3
21:36 14.6 13.8 95 1021.7 2.2 W 5.4 0.0 0.3
21:37 14.6 13.8 95 1021.8 3.8 SW 5.4 0.0 0.3
21:38 14.5 13.7 95 1021.8 3.8 WSW 5.4 0.0 0.3
21:39 14.5 13.7 95 1021.9 3.8 W 5.4 0.0 0.3
21:40 14.5 13.7 95 1021.8 3.8 W 5.4 0.0 0.3
21:41 14.5 13.7 95 1021.8 3.1 S 5.4 0.0 0.3
21:42 14.5 13.7 95 1021.9 2.2 WSW 5.4 0.0 0.3
21:43 14.5 13.7 95 1021.8 3.8 SW 5.4 0.0 0.3
21:44 14.5 13.7 95 1021.8 4.5 W 4.5 0.0 0.3
21:46 14.5 13.7 95 1021.9 4.5 W 4.5 0.0 0.3
21:47 14.5 13.7 95 1022.0 4.5 W 4.5 0.0 0.3
21:48 14.5 13.7 95 1021.9 3.8 SW 4.5 0.0 0.3
21:49 14.5 13.7 95 1021.9 3.1 W 4.5 0.0 0.3
21:50 14.5 13.7 95 1022.0 3.8 S 4.5 0.0 0.3
21:51 14.5 13.7 95 1021.7 3.1 SW 4.5 0.0 0.3
21:52 14.5 13.7 95 1021.9 3.1 W 4.5 0.0 0.3
21:53 14.5 13.7 95 1021.9 3.1 W 4.5 0.0 0.3
21:54 14.5 13.7 95 1021.9 3.8 W 4.5 0.0 0.3
21:55 14.5 13.7 95 1021.9 3.8 W 4.5 0.0 0.3
21:56 14.5 13.7 95 1022.0 3.1 SW 4.5 0.0 0.3
21:57 14.5 13.7 95 1021.9 3.1 SW 4.5 0.0 0.3
21:58 14.5 13.7 95 1022.0 2.2 W 3.8 0.0 0.3
22:00 14.5 13.7 95 1022.3 4.5 W 6.0 0.0 0.3
22:01 14.5 13.7 95 1022.0 4.5 W 6.0 0.0 0.3
22:02 14.5 13.7 95 1021.9 4.5 SSW 6.0 0.0 0.3
22:03 14.5 13.7 95 1021.9 4.5 SW 6.0 0.0 0.3
22:04 14.5 13.7 95 1022.0 4.5 SW 6.0 0.0 0.3
22:05 14.5 13.7 95 1022.0 4.5 SW 6.0 0.0 0.3
22:06 14.5 13.7 95 1022.0 4.5 W 6.0 0.0 0.3
22:07 14.5 13.7 95 1022.1 4.5 SW 6.0 0.0 0.3
22:08 14.5 13.7 95 1022.0 4.5 SW 6.0 0.0 0.3
22:09 14.5 13.7 95 1022.1 4.5 W 6.0 0.0 0.3
22:10 14.5 13.7 95 1022.0 3.1 WSW 6.0 0.0 0.3
22:11 14.5 13.7 95 1022.1 6.0 W 6.0 0.0 0.3
22:12 14.5 13.7 95 1022.0 4.5 NW 6.0 0.0 0.3
22:13 14.5 13.7 95 1022.1 3.8 WSW 6.0 0.0 0.3
22:15 14.5 13.7 95 1022.0 3.8 W 6.0 0.0 0.3
22:16 14.5 13.7 95 1022.1 5.4 W 6.0 0.0 0.3
22:17 14.5 13.7 95 1021.9 5.4 SW 6.0 0.0 0.3
22:18 14.5 13.7 95 1022.3 5.4 S 6.0 0.0 0.3
22:19 14.5 13.7 95 1022.0 4.5 W 6.0 0.0 0.3
22:20 14.5 13.7 95 1022.2 3.8 W 6.0 0.0 0.3
22:21 14.5 13.7 95 1022.2 3.1 W 6.0 0.0 0.3
22:22 14.5 13.7 95 1022.1 3.8 W 5.4 0.0 0.3
22:23 14.5 13.7 95 1022.1 4.5 W 5.4 0.0 0.3
22:24 14.5 13.7 95 1022.0 4.5 W 5.4 0.0 0.3
22:25 14.5 13.7 95 1022.0 4.5 WSW 5.4 0.0 0.3
22:26 14.5 13.7 95 1022.1 3.8 SW 5.4 0.0 0.3
22:27 14.5 13.7 95 1022.3 6.9 SW 6.9 0.0 0.3
22:29 14.5 13.7 95 1022.3 3.8 W 6.9 0.0 0.3
22:30 14.5 13.7 95 1022.1 3.8 SW 6.9 0.0 0.3
22:31 14.5 13.7 95 1022.1 5.4 W 6.9 0.0 0.3
22:32 14.5 13.7 95 1022.2 3.8 W 6.9 0.0 0.3
22:33 14.5 13.7 95 1022.2 3.1 W 6.9 0.0 0.3
22:34 14.5 13.7 95 1022.2 3.1 W 6.9 0.0 0.3
22:35 14.5 13.7 95 1022.3 3.1 W 6.9 0.0 0.3
22:36 14.5 13.7 95 1022.1 5.4 W 6.9 0.0 0.3
22:37 14.5 13.7 95 1022.4 5.4 W 6.9 0.0 0.3
22:38 14.5 13.7 95 1022.2 6.0 W 6.9 0.0 0.3
22:39 14.5 13.7 95 1022.3 6.9 W 7.6 0.0 0.3
22:40 14.5 13.7 95 1022.2 7.6 NW 7.6 0.0 0.3
22:41 14.5 13.7 95 1022.4 7.6 NW 7.6 0.0 0.3
22:42 14.5 13.7 95 1022.5 9.2 NW 9.2 0.0 0.3
22:44 14.4 13.6 95 1022.3 6.0 W 9.2 0.0 0.3
22:45 14.4 13.6 95 1022.2 6.0 W 9.2 0.0 0.3
22:46 14.4 13.6 95 1022.4 4.5 SW 9.2 0.0 0.3
22:47 14.4 13.6 95 1022.3 5.4 NW 9.2 0.0 0.3
22:48 14.3 13.5 95 1022.5 8.3 W 9.2 0.0 0.3
22:49 14.3 13.5 95 1022.5 8.3 W 9.2 0.0 0.3
22:50 14.3 13.5 95 1022.5 5.4 W 9.2 0.0 0.3
22:51 14.3 13.5 95 1022.3 5.4 NW 9.2 0.0 0.3
22:52 14.2 13.4 95 1022.1 3.8 NW 9.2 0.0 0.3
22:53 14.2 13.4 95 1022.4 5.4 W 9.2 0.0 0.3
22:54 14.2 13.4 95 1022.6 5.4 W 8.3 0.0 0.3
22:55 14.2 13.4 95 1022.3 4.5 W 8.3 0.0 0.3
22:56 14.1 13.2 94 1022.3 5.4 SW 8.3 0.0 0.3
22:57 14.1 13.2 94 1022.4 5.4 SW 8.3 0.0 0.3
22:59 14.1 13.2 94 1022.4 7.6 NW 7.6 0.0 0.3
23:00 14.1 13.2 94 1022.4 7.6 NW 7.6 0.0 0.3
23:01 14.1 13.2 94 1022.6 7.6 NW 7.6 0.0 0.3
23:02 14.1 13.2 94 1022.6 7.6 NW 7.6 0.0 0.3
23:03 14.1 13.2 94 1022.5 7.6 NW 7.6 0.0 0.3
23:04 14.1 13.2 94 1022.4 7.6 NW 7.6 0.0 0.3
23:05 14.1 13.2 94 1022.4 7.6 NW 7.6 0.0 0.3
23:06 14.1 13.2 94 1022.4 7.6 NW 7.6 0.0 0.3
23:07 13.9 13.0 94 1022.2 9.2 W 9.2 0.0 0.3
23:08 13.9 13.0 94 1022.5 6.0 W 9.2 0.0 0.3
23:09 13.8 12.9 94 1022.5 6.9 SW 9.2 0.0 0.3
23:10 13.8 12.9 94 1022.5 5.4 NW 9.2 0.0 0.3
23:11 13.8 12.9 94 1022.6 5.4 W 9.2 0.0 0.3
23:13 13.7 12.8 94 1022.5 6.9 W 9.2 0.0 0.3
23:14 13.7 12.8 94 1022.7 6.0 NW 9.2 0.0 0.3
23:15 13.7 12.8 94 1022.4 4.5 W 9.2 0.0 0.3
23:16 13.7 12.8 94 1022.4 6.0 W 9.2 0.0 0.3
23:17 13.7 12.8 94 1022.6 6.0 WSW 9.2 0.0 0.3
23:18 13.7 12.8 94 1022.6 6.0 WSW 6.9 0.0 0.3
23:19 13.6 12.7 94 1022.8 5.4 W 6.9 0.0 0.3
23:21 13.6 12.7 94 1022.5 6.0 WSW 6.9 0.0 0.3
23:22 13.6 12.7 94 1022.7 4.5 SW 6.9 0.0 0.3
23:23 13.6 12.7 94 1022.7 3.8 W 6.9 0.0 0.3
23:24 13.6 12.7 94 1022.8 4.5 W 6.9 0.0 0.3
23:25 13.6 12.7 94 1022.5 3.8 W 6.9 0.0 0.3
23:26 13.6 12.7 94 1022.5 3.8 W 6.9 0.0 0.3
23:27 13.6 12.7 94 1022.5 4.5 W 6.9 0.0 0.3
23:28 13.6 12.7 94 1022.6 3.8 W 6.9 0.0 0.3
23:29 13.6 12.7 94 1022.6 5.4 W 6.9 0.0 0.3
23:30 13.6 12.7 94 1022.4 4.5 NW 6.9 0.0 0.3
23:31 13.6 12.7 94 1022.4 3.8 SW 6.0 0.0 0.3
23:32 13.6 12.7 94 1022.5 3.1 W 5.4 0.0 0.3
23:33 13.6 12.7 94 1022.6 3.1 NW 5.4 0.0 0.3
23:35 13.6 12.7 94 1022.5 5.4 W 5.4 0.0 0.3
23:36 13.6 12.7 94 1022.5 3.1 NW 5.4 0.0 0.3
23:37 13.6 12.7 94 1022.6 3.1 SW 5.4 0.0 0.3
23:38 13.6 12.7 94 1022.6 3.1 SW 5.4 0.0 0.3
23:39 13.6 12.7 94 1022.5 4.5 W 5.4 0.0 0.3
23:40 13.6 12.7 94 1022.5 4.5 W 5.4 0.0 0.3
23:41 13.6 12.7 94 1022.6 4.5 W 5.4 0.0 0.3
23:42 13.6 12.7 94 1022.7 5.4 W 5.4 0.0 0.3
23:43 13.6 12.7 94 1022.6 4.5 W 5.4 0.0 0.3
23:44 13.6 12.7 94 1022.8 4.5 W 5.4 0.0 0.3
23:45 13.6 12.7 94 1022.7 5.4 W 5.4 0.0 0.3
23:46 13.6 12.7 94 1022.7 5.4 WSW 5.4 0.0 0.3
23:47 13.6 12.7 94 1022.6 4.5 NW 5.4 0.0 0.3
23:49 13.6 12.7 94 1022.7 3.1 W 5.4 0.0 0.3
23:50 13.6 12.7 94 1022.8 3.1 W 5.4 0.0 0.3
23:51 13.6 12.7 94 1022.8 5.4 W 5.4 0.0 0.3
23:52 13.6 12.7 94 1022.7 4.5 W 5.4 0.0 0.3
23:53 13.6 12.7 94 1022.6 4.5 W 5.4 0.0 0.3
23:54 13.6 12.7 94 1022.6 4.5 W 5.4 0.0 0.3
23:55 13.6 12.7 94 1022.6 3.8 NE 5.4 0.0 0.3
23:56 13.6 12.7 94 1022.7 4.5 W 5.4 0.0 0.3
23:57 13.6 12.7 94 1022.8 4.5 W 5.4 0.0 0.3
23:58 13.6 12.7 94 1022.9 3.8 NW 5.4 0.0 0.3
23:59 13.6 12.7 94 1022.6 3.1 W 5.4 0.0 0.3

 

 

UK - WEATHER STATION TOPSITES - UK World Weather Websites

Copyright © Carnkie Weather 2009 - 2021.